| time (UTC) | temp C | wind direction | speed KPH | gust KPH | rain 1hr cm | rain 24hr cm | rain mn cm | humidity % | barometer mb |
| 20260904050857 | 16 | 228 | 3.2 | 17.7 | 0.00 | 0.00 | 0.00 | 100 | 959.2 |
| 20260904050756 | 16 | 219 | 1.6 | 17.7 | 0.00 | 0.00 | 0.00 | 100 | 959.2 |
| 20260904050641 | 16 | 0 | 1.6 | 11.3 | 0.00 | 0.00 | 0.00 | 100 | 959.2 |
| 20260904050437 | 16 | 0 | 1.6 | 11.3 | 0.00 | 0.00 | 0.00 | 100 | 959.3 |
| 20260904050233 | 16 | 211 | 1.6 | 11.3 | 0.00 | 0.00 | 0.00 | 100 | 959.2 |
| 20260904050133 | 16 | 219 | 1.6 | 9.7 | 0.00 | 0.00 | 0.00 | 100 | 959.2 |
| 20260904050031 | 16 | 215 | 1.6 | 9.7 | 0.00 | 0.00 | 0.00 | 100 | 959.2 |
| 20260904045827 | 16 | 216 | 3.2 | 11.3 | 0.00 | 0.00 | 0.00 | 100 | 959.2 |
| 20260904045624 | 16 | 212 | 3.2 | 12.9 | 0.00 | 0.00 | 0.00 | 100 | 959.2 |
| 20260904045524 | 16 | 211 | 3.2 | 12.9 | 0.00 | 0.00 | 0.00 | 100 | 959.3 |
| 20260904045422 | 16 | 205 | 3.2 | 12.9 | 0.00 | 0.00 | 0.00 | 100 | 959.2 |
| 20260904045219 | 16 | 207 | 3.2 | 12.9 | 0.00 | 0.00 | 0.00 | 100 | 959.2 |
| 20260904045016 | 15 | 214 | 3.2 | 14.5 | 0.00 | 0.00 | 0.00 | 100 | 959.2 |
| 20260904044915 | 15 | 213 | 3.2 | 14.5 | 0.00 | 0.00 | 0.00 | 100 | 959.2 |
| 20260904044813 | 15 | 214 | 3.2 | 14.5 | 0.00 | 0.00 | 0.00 | 100 | 959.2 |
| 20260904044610 | 15 | 214 | 1.6 | 9.7 | 0.00 | 0.00 | 0.00 | 100 | 959.1 |
| 20260904044406 | 15 | 214 | 1.6 | 9.7 | 0.00 | 0.00 | 0.00 | 100 | 959.1 |
| 20260904044306 | 15 | 218 | 1.6 | 9.7 | 0.00 | 0.00 | 0.00 | 100 | 959.1 |
| 20260904044203 | 15 | 220 | 3.2 | 11.3 | 0.00 | 0.00 | 0.00 | 100 | 959.1 |
| 20260904044000 | 15 | 213 | 3.2 | 11.3 | 0.00 | 0.00 | 0.00 | 100 | 959.1 |
| 20260904043758 | 15 | 219 | 3.2 | 8.0 | 0.00 | 0.00 | 0.00 | 100 | 959.0 |
| 20260904043657 | 15 | 228 | 1.6 | 11.3 | 0.00 | 0.00 | 0.00 | 100 | 959.0 |
| 20260904043554 | 15 | 232 | 1.6 | 11.3 | 0.00 | 0.00 | 0.00 | 100 | 959.0 |
| 20260904043351 | 15 | 216 | 1.6 | 12.9 | 0.00 | 0.00 | 0.00 | 100 | 959.0 |
| 20260904043148 | 15 | 217 | 3.2 | 14.5 | 0.00 | 0.00 | 0.00 | 100 | 959.1 |
| 20260904042945 | 16 | 219 | 3.2 | 14.5 | 0.00 | 0.00 | 0.00 | 100 | 959.0 |
| 20260904042742 | 16 | 225 | 4.8 | 22.5 | 0.00 | 0.00 | 0.00 | 100 | 959.0 |
| 20260904042538 | 16 | 247 | 6.4 | 22.5 | 0.00 | 0.00 | 0.00 | 100 | 959.1 |
| 20260904042437 | 16 | 256 | 6.4 | 22.5 | 0.00 | 0.00 | 0.00 | 100 | 959.0 |
| 20260904042335 | 16 | 258 | 8.0 | 16.1 | 0.00 | 0.00 | 0.00 | 100 | 959.0 |
| 20260904042131 | 16 | 255 | 8.0 | 22.5 | 0.00 | 0.00 | 0.00 | 100 | 959.2 |
| 20260904041928 | 16 | 255 | 9.7 | 22.5 | 0.00 | 0.00 | 0.00 | 100 | 959.2 |
| 20260904041828 | 16 | 251 | 9.7 | 25.7 | 0.00 | 0.00 | 0.00 | 100 | 959.2 |
| 20260904041725 | 16 | 253 | 8.0 | 25.7 | 0.00 | 0.00 | 0.00 | 100 | 959.2 |
| 20260904041522 | 16 | 251 | 6.4 | 25.7 | 0.00 | 0.00 | 0.00 | 100 | 959.3 |
| 20260904041318 | 16 | 254 | 6.4 | 22.5 | 0.00 | 0.00 | 0.00 | 100 | 959.3 |
| 20260904041116 | 16 | 259 | 9.7 | 25.7 | 0.00 | 0.00 | 0.00 | 100 | 959.3 |
| 20260904040913 | 16 | 258 | 11.3 | 25.7 | 0.00 | 0.00 | 0.00 | 100 | 959.2 |
| 20260904040709 | 16 | 253 | 11.3 | 22.5 | 0.00 | 0.00 | 0.00 | 100 | 959.4 |
| 20260904040609 | 16 | 254 | 9.7 | 19.3 | 0.00 | 0.00 | 0.00 | 100 | 959.3 |
| 20260904040507 | 16 | 253 | 8.0 | 19.3 | 0.00 | 0.00 | 0.00 | 100 | 959.3 |
| 20260904040304 | 16 | 255 | 6.4 | 17.7 | 0.00 | 0.00 | 0.00 | 100 | 959.2 |
| 20260904040101 | 16 | 253 | 4.8 | 16.1 | 0.00 | 0.00 | 0.00 | 100 | 959.2 |
| 20260904040000 | 16 | 252 | 6.4 | 17.7 | 0.00 | 0.00 | 0.00 | 100 | 959.2 |
| 20260904035857 | 16 | 250 | 6.4 | 17.7 | 0.00 | 0.00 | 0.00 | 100 | 959.1 |
| 20260904035654 | 16 | 251 | 8.0 | 17.7 | 0.00 | 0.00 | 0.00 | 100 | 959.0 |
| 20260904035451 | 16 | 251 | 6.4 | 16.1 | 0.00 | 0.00 | 0.00 | 100 | 959.0 |
| 20260904035350 | 16 | 252 | 6.4 | 16.1 | 0.00 | 0.00 | 0.00 | 100 | 959.1 |
| 20260904035248 | 16 | 256 | 6.4 | 19.3 | 0.00 | 0.00 | 0.00 | 100 | 959.1 |
| 20260904035044 | 16 | 252 | 6.4 | 19.3 | 0.00 | 0.00 | 0.00 | 100 | 959.2 |
| 20260904034843 | 16 | 253 | 8.0 | 17.7 | 0.00 | 0.00 | 0.00 | 100 | 959.2 |
| 20260904034742 | 16 | 258 | 8.0 | 17.7 | 0.00 | 0.00 | 0.00 | 100 | 959.2 |
| 20260904034639 | 16 | 258 | 6.4 | 20.9 | 0.00 | 0.00 | 0.00 | 100 | 959.2 |
| 20260904034436 | 16 | 263 | 8.0 | 25.7 | 0.00 | 0.00 | 0.00 | 100 | 959.2 |
| 20260904034233 | 16 | 265 | 11.3 | 25.7 | 0.00 | 0.00 | 0.00 | 100 | 959.2 |
| 20260904034132 | 16 | 263 | 11.3 | 25.7 | 0.00 | 0.00 | 0.00 | 100 | 959.2 |
| 20260904034030 | 16 | 258 | 11.3 | 25.7 | 0.00 | 0.00 | 0.00 | 100 | 959.2 |
| 20260904033826 | 16 | 252 | 8.0 | 25.7 | 0.00 | 0.00 | 0.00 | 100 | 959.2 |
| 20260904033623 | 16 | 251 | 9.7 | 25.7 | 0.00 | 0.00 | 0.00 | 100 | 959.1 |
| 20260904033522 | 16 | 256 | 9.7 | 25.7 | 0.00 | 0.00 | 0.00 | 100 | 959.1 |
| 20260904033421 | 16 | 256 | 9.7 | 22.5 | 0.00 | 0.00 | 0.00 | 100 | 959.2 |
| 20260904033217 | 16 | 254 | 11.3 | 33.8 | 0.00 | 0.00 | 0.00 | 100 | 959.2 |
| 20260904033015 | 16 | 248 | 8.0 | 33.8 | 0.00 | 0.00 | 0.00 | 100 | 959.0 |
| 20260904032914 | 16 | 241 | 8.0 | 33.8 | 0.00 | 0.00 | 0.00 | 100 | 959.1 |
| 20260904032811 | 16 | 243 | 6.4 | 20.9 | 0.00 | 0.00 | 0.00 | 100 | 959.0 |
| 20260904032608 | 16 | 249 | 6.4 | 20.9 | 0.00 | 0.00 | 0.00 | 100 | 959.0 |
| 20260904032404 | 16 | 257 | 6.4 | 20.9 | 0.00 | 0.00 | 0.00 | 100 | 959.0 |
| 20260904032305 | 16 | 256 | 6.4 | 19.3 | 0.00 | 0.00 | 0.00 | 100 | 959.0 |
| 20260904032201 | 16 | 256 | 6.4 | 19.3 | 0.00 | 0.00 | 0.00 | 100 | 959.1 |
| 20260904031958 | 16 | 259 | 8.0 | 25.7 | 0.00 | 0.00 | 0.00 | 100 | 959.0 |
| 20260904031755 | 16 | 262 | 11.3 | 25.7 | 0.00 | 0.00 | 0.00 | 100 | 959.1 |
| 20260904031551 | 16 | 260 | 9.7 | 24.1 | 0.00 | 0.00 | 0.00 | 100 | 959.1 |
| 20260904031348 | 16 | 259 | 8.0 | 17.7 | 0.00 | 0.00 | 0.00 | 100 | 959.1 |
| 20260904031144 | 16 | 260 | 8.0 | 17.7 | 0.00 | 0.00 | 0.00 | 100 | 959.2 |
| 20260904031043 | 16 | 257 | 3.2 | 17.7 | 0.00 | 0.00 | 0.00 | 100 | 959.2 |
| 20260904030941 | 16 | 257 | 3.2 | 14.5 | 0.00 | 0.00 | 0.00 | 100 | 959.2 |
| 20260904030738 | 16 | 217 | 1.6 | 9.7 | 0.00 | 0.00 | 0.00 | 100 | 959.2 |
| 20260904030535 | 16 | 248 | 4.8 | 12.9 | 0.00 | 0.00 | 0.00 | 100 | 959.1 |
| 20260904030434 | 16 | 253 | 4.8 | 12.9 | 0.00 | 0.00 | 0.00 | 100 | 959.1 |
| 20260904030331 | 16 | 250 | 4.8 | 12.9 | 0.00 | 0.00 | 0.00 | 100 | 959.1 |
| 20260904030128 | 16 | 221 | 3.2 | 11.3 | 0.00 | 0.00 | 0.00 | 100 | 959.1 |
| 20260904025925 | 16 | 257 | 8.0 | 24.1 | 0.00 | 0.00 | 0.00 | 100 | 959.1 |
| 20260904025721 | 16 | 267 | 9.7 | 24.1 | 0.00 | 0.00 | 0.00 | 100 | 959.3 |
| 20260904025518 | 16 | 264 | 8.0 | 16.1 | 0.00 | 0.00 | 0.00 | 100 | 959.2 |
| 20260904025316 | 16 | 264 | 6.4 | 16.1 | 0.00 | 0.00 | 0.00 | 100 | 959.2 |
| 20260904025215 | 16 | 269 | 6.4 | 16.1 | 0.00 | 0.00 | 0.00 | 100 | 959.2 |
| 20260904025112 | 16 | 265 | 6.4 | 16.1 | 0.00 | 0.00 | 0.00 | 100 | 959.2 |
| 20260904024908 | 16 | 263 | 6.4 | 17.7 | 0.00 | 0.00 | 0.00 | 100 | 959.1 |
| 20260904024705 | 16 | 260 | 4.8 | 16.1 | 0.00 | 0.00 | 0.00 | 100 | 959.2 |
| 20260904024604 | 15 | 250 | 3.2 | 14.5 | 0.00 | 0.00 | 0.00 | 100 | 959.1 |
| 20260904024502 | 16 | 243 | 1.6 | 11.3 | 0.00 | 0.00 | 0.00 | 100 | 959.2 |
| 20260904024259 | 16 | 247 | 3.2 | 12.9 | 0.00 | 0.00 | 0.00 | 100 | 959.3 |
| 20260904024055 | 16 | 254 | 6.4 | 17.7 | 0.00 | 0.00 | 0.00 | 100 | 959.2 |
| 20260904023954 | 16 | 252 | 6.4 | 17.7 | 0.00 | 0.00 | 0.00 | 100 | 959.3 |
| 20260904023852 | 15 | 252 | 4.8 | 17.7 | 0.00 | 0.00 | 0.00 | 100 | 959.2 |
| 20260904023649 | 15 | 244 | 4.8 | 14.5 | 0.00 | 0.00 | 0.00 | 100 | 959.2 |
| 20260904023445 | 15 | 239 | 4.8 | 14.5 | 0.00 | 0.00 | 0.00 | 100 | 959.1 |
| 20260904023345 | 15 | 233 | 3.2 | 8.0 | 0.00 | 0.00 | 0.00 | 100 | 959.2 |
| 20260904023243 | 15 | 237 | 3.2 | 20.9 | 0.00 | 0.00 | 0.00 | 100 | 959.0 |
| 20260904023040 | 15 | 234 | 3.2 | 20.9 | 0.00 | 0.00 | 0.00 | 100 | 959.2 |
| 20260904022836 | 15 | 249 | 3.2 | 11.3 | 0.00 | 0.00 | 0.00 | 100 | 959.1 |
| 20260904022722 | 15 | 256 | 1.6 | 11.3 | 0.00 | 0.00 | 0.00 | 100 | 959.0 |
| 20260904022620 | 15 | 0 | 1.6 | 6.4 | 0.00 | 0.00 | 0.00 | 100 | 959.0 |
| 20260904022417 | 15 | 0 | 1.6 | 9.7 | 0.00 | 0.00 | 0.00 | 100 | 959.1 |
| 20260904022214 | 15 | 0 | 1.6 | 9.7 | 0.00 | 0.00 | 0.00 | 100 | 959.1 |
| 20260904022010 | 15 | 0 | 1.6 | 6.4 | 0.00 | 0.00 | 0.00 | 100 | 959.0 |
| 20260904021807 | 15 | 0 | 0.0 | 6.4 | 0.00 | 0.00 | 0.00 | 100 | 959.1 |
| 20260904021604 | 15 | 0 | 1.6 | 6.4 | 0.00 | 0.00 | 0.00 | 100 | 958.9 |
| 20260904021503 | 15 | 0 | 1.6 | 6.4 | 0.00 | 0.00 | 0.00 | 100 | 958.9 |
| 20260904021400 | 15 | 0 | 1.6 | 6.4 | 0.00 | 0.00 | 0.00 | 100 | 959.0 |
| 20260904021157 | 15 | 236 | 3.2 | 16.1 | 0.00 | 0.00 | 0.00 | 100 | 959.0 |
| 20260904020954 | 15 | 237 | 3.2 | 16.1 | 0.00 | 0.00 | 0.00 | 100 | 958.9 |
| 20260904020853 | 15 | 235 | 3.2 | 16.1 | 0.00 | 0.00 | 0.00 | 100 | 958.9 |
| 20260904020751 | 15 | 231 | 3.2 | 12.9 | 0.00 | 0.00 | 0.00 | 100 | 958.8 |
| 20260904020547 | 15 | 225 | 3.2 | 12.9 | 0.00 | 0.00 | 0.00 | 100 | 959.0 |
| 20260904020344 | 15 | 223 | 3.2 | 12.9 | 0.00 | 0.00 | 0.00 | 100 | 959.0 |
| 20260904020243 | 15 | 227 | 3.2 | 12.9 | 0.00 | 0.00 | 0.00 | 100 | 959.0 |
| 20260904020141 | 15 | 230 | 3.2 | 14.5 | 0.00 | 0.00 | 0.00 | 100 | 959.0 |
| 20260904015938 | 16 | 233 | 3.2 | 14.5 | 0.00 | 0.00 | 0.00 | 100 | 959.0 |
| 20260904015735 | 16 | 227 | 3.2 | 14.5 | 0.00 | 0.00 | 0.00 | 100 | 959.0 |
| 20260904015634 | 16 | 234 | 3.2 | 14.5 | 0.00 | 0.00 | 0.00 | 100 | 959.0 |
| 20260904015531 | 16 | 233 | 3.2 | 14.5 | 0.00 | 0.00 | 0.00 | 100 | 959.0 |
| 20260904015328 | 16 | 230 | 3.2 | 16.1 | 0.00 | 0.00 | 0.00 | 100 | 959.0 |
| 20260904015125 | 16 | 220 | 3.2 | 16.1 | 0.00 | 0.00 | 0.00 | 100 | 959.0 |
| 20260904015024 | 16 | 219 | 3.2 | 16.1 | 0.00 | 0.00 | 0.00 | 100 | 959.1 |
| 20260904014922 | 16 | 215 | 3.2 | 16.1 | 0.00 | 0.00 | 0.00 | 100 | 959.1 |
| 20260904014719 | 16 | 221 | 3.2 | 16.1 | 0.00 | 0.00 | 0.00 | 100 | 959.1 |
| 20260904014516 | 16 | 237 | 4.8 | 19.3 | 0.00 | 0.00 | 0.00 | 100 | 959.0 |
| 20260904014414 | 16 | 244 | 6.4 | 19.3 | 0.00 | 0.00 | 0.00 | 100 | 959.1 |
| 20260904014313 | 16 | 246 | 8.0 | 24.1 | 0.00 | 0.00 | 0.00 | 100 | 959.1 |
| 20260904014109 | 16 | 247 | 8.0 | 24.1 | 0.00 | 0.00 | 0.00 | 100 | 959.2 |
| 20260904013906 | 16 | 241 | 4.8 | 19.3 | 0.00 | 0.00 | 0.00 | 100 | 959.2 |
| 20260904013806 | 16 | 241 | 4.8 | 16.1 | 0.00 | 0.00 | 0.00 | 100 | 959.1 |
| 20260904013703 | 16 | 234 | 4.8 | 16.1 | 0.00 | 0.00 | 0.00 | 100 | 959.1 |
| 20260904013459 | 15 | 259 | 4.8 | 22.5 | 0.00 | 0.00 | 0.00 | 100 | 959.1 |
| 20260904013257 | 15 | 283 | 6.4 | 17.7 | 0.00 | 0.00 | 0.00 | 100 | 959.1 |
| 20260904013156 | 15 | 301 | 4.8 | 17.7 | 0.00 | 0.00 | 0.00 | 100 | 959.1 |
| 20260904013054 | 14 | 304 | 4.8 | 17.7 | 0.00 | 0.00 | 0.00 | 100 | 959.1 |
| 20260904012851 | 14 | 326 | 3.2 | 9.7 | 0.00 | 0.00 | 0.00 | 100 | 959.1 |
| 20260904012647 | 15 | 299 | 6.4 | 12.9 | 0.00 | 0.00 | 0.00 | 100 | 959.1 |
| 20260904012546 | 16 | 291 | 8.0 | 14.5 | 0.00 | 0.00 | 0.00 | 100 | 959.1 |
| 20260904012444 | 16 | 274 | 8.0 | 14.5 | 0.00 | 0.00 | 0.00 | 100 | 959.1 |
| 20260904012241 | 16 | 267 | 9.7 | 17.7 | 0.00 | 0.00 | 0.00 | 100 | 959.0 |
| 20260904012039 | 16 | 260 | 8.0 | 19.3 | 0.00 | 0.00 | 0.00 | 100 | 959.1 |
| 20260904011938 | 16 | 255 | 8.0 | 19.3 | 0.00 | 0.00 | 0.00 | 100 | 959.1 |
| 20260904011836 | 16 | 253 | 8.0 | 19.3 | 0.00 | 0.00 | 0.00 | 100 | 958.9 |
| 20260904011632 | 16 | 236 | 4.8 | 20.9 | 0.00 | 0.00 | 0.00 | 100 | 959.0 |
| 20260904011429 | 16 | 233 | 3.2 | 20.9 | 0.00 | 0.00 | 0.00 | 100 | 959.0 |
| 20260904011328 | 16 | 239 | 4.8 | 25.7 | 0.00 | 0.00 | 0.00 | 100 | 959.0 |
| 20260904011225 | 16 | 240 | 4.8 | 25.7 | 0.00 | 0.00 | 0.00 | 100 | 959.0 |
| 20260904011022 | 16 | 226 | 3.2 | 25.7 | 0.00 | 0.00 | 0.00 | 100 | 958.9 |
| 20260904010819 | 16 | 201 | 3.2 | 12.9 | 0.00 | 0.00 | 0.00 | 100 | 958.9 |
| 20260904010718 | 16 | 213 | 3.2 | 14.5 | 0.00 | 0.00 | 0.00 | 100 | 958.9 |
| 20260904010616 | 16 | 216 | 4.8 | 14.5 | 0.00 | 0.00 | 0.00 | 100 | 959.0 |
| 20260904010413 | 16 | 222 | 4.8 | 16.1 | 0.00 | 0.00 | 0.00 | 100 | 959.1 |
| 20260904010211 | 16 | 222 | 3.2 | 16.1 | 0.00 | 0.00 | 0.00 | 100 | 959.1 |
| 20260904010110 | 16 | 231 | 1.6 | 14.5 | 0.00 | 0.00 | 0.00 | 100 | 959.2 |
| 20260904010007 | 16 | 0 | 1.6 | 9.7 | 0.00 | 0.00 | 0.00 | 100 | 959.2 |
| 20260904005804 | 16 | 257 | 1.6 | 9.7 | 0.00 | 0.00 | 0.00 | 100 | 959.1 |
| 20260904005601 | 16 | 0 | 1.6 | 8.0 | 0.00 | 0.00 | 0.00 | 100 | 959.2 |
| 20260904005500 | 16 | 235 | 1.6 | 8.0 | 0.00 | 0.00 | 0.00 | 100 | 959.1 |
| 20260904005357 | 16 | 0 | 1.6 | 8.0 | 0.00 | 0.00 | 0.00 | 100 | 959.2 |
| 20260904005154 | 16 | 237 | 1.6 | 8.0 | 0.00 | 0.00 | 0.00 | 100 | 959.2 |
| 20260904004951 | 16 | 240 | 3.2 | 19.3 | 0.00 | 0.00 | 0.00 | 100 | 959.3 |
| 20260904004748 | 16 | 235 | 4.8 | 19.3 | 0.00 | 0.00 | 0.00 | 100 | 959.1 |
| 20260904004545 | 16 | 225 | 3.2 | 14.5 | 0.00 | 0.00 | 0.00 | 100 | 959.1 |
| 20260904004342 | 16 | 239 | 3.2 | 14.5 | 0.00 | 0.00 | 0.00 | 100 | 959.2 |
| 20260904004242 | 16 | 239 | 3.2 | 14.5 | 0.00 | 0.00 | 0.00 | 100 | 959.3 |
| 20260904004139 | 16 | 238 | 3.2 | 14.5 | 0.00 | 0.00 | 0.00 | 100 | 959.3 |
| 20260904003936 | 16 | 243 | 3.2 | 14.5 | 0.00 | 0.00 | 0.00 | 100 | 959.3 |
| 20260904003733 | 16 | 252 | 3.2 | 11.3 | 0.00 | 0.00 | 0.00 | 100 | 959.3 |
| 20260904003632 | 16 | 251 | 3.2 | 8.0 | 0.00 | 0.00 | 0.00 | 100 | 959.3 |
| 20260904003529 | 16 | 250 | 3.2 | 8.0 | 0.00 | 0.00 | 0.00 | 100 | 959.4 |
| 20260904003326 | 16 | 247 | 3.2 | 12.9 | 0.00 | 0.00 | 0.00 | 100 | 959.4 |
| 20260904003124 | 16 | 245 | 3.2 | 12.9 | 0.00 | 0.00 | 0.00 | 100 | 959.4 |
| 20260904003023 | 16 | 241 | 3.2 | 12.9 | 0.00 | 0.00 | 0.00 | 100 | 959.4 |
| 20260904002921 | 16 | 225 | 3.2 | 11.3 | 0.00 | 0.00 | 0.00 | 100 | 959.4 |
| 20260904002718 | 16 | 221 | 1.6 | 11.3 | 0.00 | 0.00 | 0.00 | 100 | 959.4 |
| 20260904002515 | 16 | 230 | 1.6 | 11.3 | 0.00 | 0.00 | 0.00 | 100 | 959.4 |
| 20260904002414 | 16 | 230 | 1.6 | 11.3 | 0.00 | 0.00 | 0.00 | 100 | 959.4 |
| 20260904002312 | 16 | 0 | 1.6 | 8.0 | 0.00 | 0.00 | 0.00 | 100 | 959.3 |
| 20260904002108 | 16 | 0 | 1.6 | 8.0 | 0.00 | 0.00 | 0.00 | 100 | 959.2 |
| 20260904001905 | 16 | 219 | 1.6 | 12.9 | 0.00 | 0.00 | 0.00 | 100 | 959.3 |
| 20260904001805 | 16 | 222 | 1.6 | 12.9 | 0.00 | 0.00 | 0.00 | 100 | 959.3 |
| 20260904001702 | 16 | 221 | 1.6 | 12.9 | 0.00 | 0.00 | 0.00 | 100 | 959.4 |
| 20260904001459 | 17 | 0 | 1.6 | 8.0 | 0.00 | 0.00 | 0.00 | 100 | 959.4 |
| 20260904001256 | 17 | 220 | 1.6 | 8.0 | 0.00 | 0.00 | 0.00 | 100 | 959.4 |
| 20260904001155 | 17 | 227 | 1.6 | 8.0 | 0.00 | 0.00 | 0.00 | 100 | 959.4 |
| 20260904001053 | 17 | 236 | 1.6 | 8.0 | 0.00 | 0.00 | 0.00 | 100 | 959.4 |
| 20260904000851 | 17 | 243 | 1.6 | 8.0 | 0.00 | 0.00 | 0.00 | 100 | 959.5 |
| 20260904000647 | 17 | 237 | 1.6 | 8.0 | 0.00 | 0.00 | 0.00 | 100 | 959.5 |
| 20260904000547 | 17 | 235 | 3.2 | 9.7 | 0.00 | 0.00 | 0.00 | 100 | 959.5 |
| 20260904000444 | 17 | 238 | 3.2 | 9.7 | 0.00 | 0.00 | 0.00 | 100 | 959.5 |
| 20260904000241 | 17 | 241 | 3.2 | 17.7 | 0.00 | 0.00 | 0.00 | 100 | 959.5 |
| 20260904000038 | 17 | 248 | 4.8 | 19.3 | 0.00 | 0.00 | 0.00 | 100 | 959.5 |
| 20260903235937 | 17 | 245 | 4.8 | 19.3 | 0.00 | 0.00 | 0.00 | 100 | 959.5 |
| 20260903235741 | 17 | 249 | 4.8 | 14.5 | 0.00 | 0.00 | 0.00 | 100 | 959.4 |
| 20260903235537 | 17 | 248 | 6.4 | 14.5 | 0.00 | 0.00 | 0.00 | 100 | 959.5 |
| 20260903235438 | 17 | 248 | 6.4 | 16.1 | 0.00 | 0.00 | 0.00 | 100 | 959.4 |
| 20260903235334 | 17 | 247 | 6.4 | 16.1 | 0.00 | 0.00 | 0.00 | 100 | 959.5 |
| 20260903235131 | 17 | 241 | 3.2 | 16.1 | 0.00 | 0.00 | 0.00 | 100 | 959.4 |
| 20260903234927 | 17 | 218 | 3.2 | 14.5 | 0.00 | 0.00 | 0.00 | 100 | 959.6 |
| 20260903234827 | 17 | 214 | 3.2 | 14.5 | 0.00 | 0.00 | 0.00 | 100 | 959.5 |
| 20260903234724 | 17 | 210 | 3.2 | 14.5 | 0.00 | 0.00 | 0.00 | 100 | 959.5 |
| 20260903234521 | 17 | 235 | 4.8 | 25.7 | 0.00 | 0.00 | 0.00 | 100 | 959.5 |
| 20260903234317 | 17 | 237 | 4.8 | 25.7 | 0.00 | 0.00 | 0.00 | 100 | 959.5 |
| 20260903234203 | 17 | 228 | 4.8 | 17.7 | 0.00 | 0.00 | 0.00 | 100 | 959.6 |
| 20260903234100 | 17 | 234 | 4.8 | 17.7 | 0.00 | 0.00 | 0.00 | 100 | 959.6 |
| 20260903233857 | 17 | 237 | 6.4 | 17.7 | 0.00 | 0.00 | 0.00 | 100 | 959.6 |
| 20260903233654 | 17 | 238 | 6.4 | 22.5 | 0.00 | 0.00 | 0.00 | 100 | 959.6 |
| 20260903233553 | 17 | 233 | 4.8 | 22.5 | 0.00 | 0.00 | 0.00 | 100 | 959.7 |
| 20260903233451 | 17 | 229 | 4.8 | 22.5 | 0.00 | 0.00 | 0.00 | 100 | 959.7 |
| 20260903233247 | 17 | 253 | 8.0 | 24.1 | 0.00 | 0.00 | 0.00 | 100 | 959.7 |
| 20260903233045 | 17 | 256 | 9.7 | 24.1 | 0.00 | 0.00 | 0.00 | 100 | 959.8 |
| 20260903232944 | 18 | 256 | 8.0 | 24.1 | 0.00 | 0.00 | 0.00 | 100 | 959.7 |
| 20260903232842 | 17 | 255 | 8.0 | 20.9 | 0.00 | 0.00 | 0.00 | 100 | 959.7 |
| 20260903232639 | 18 | 268 | 11.3 | 29.0 | 0.00 | 0.00 | 0.00 | 100 | 959.9 |
| 20260903232436 | 18 | 264 | 9.7 | 29.0 | 0.00 | 0.00 | 0.00 | 100 | 959.7 |
| 20260903232335 | 18 | 259 | 8.0 | 20.9 | 0.00 | 0.00 | 0.00 | 100 | 959.9 |
| 20260903232233 | 18 | 262 | 9.7 | 20.9 | 0.00 | 0.00 | 0.00 | 100 | 959.9 |
| 20260903232029 | 18 | 282 | 12.9 | 29.0 | 0.00 | 0.00 | 0.00 | 100 | 959.9 |
| 20260903231826 | 18 | 282 | 12.9 | 29.0 | 0.00 | 0.00 | 0.00 | 100 | 959.9 |
| 20260903231725 | 18 | 278 | 11.3 | 29.0 | 0.00 | 0.00 | 0.00 | 100 | 959.9 |
| 20260903231623 | 18 | 281 | 11.3 | 22.5 | 0.00 | 0.00 | 0.00 | 100 | 959.9 |
| 20260903231419 | 18 | 284 | 16.1 | 29.0 | 0.00 | 0.00 | 0.00 | 100 | 960.0 |
| 20260903231217 | 18 | 293 | 20.9 | 43.5 | 0.00 | 0.00 | 0.00 | 100 | 959.9 |
| 20260903231116 | 18 | 292 | 22.5 | 43.5 | 0.00 | 0.00 | 0.00 | 100 | 959.9 |
| 20260903231014 | 18 | 290 | 22.5 | 43.5 | 0.00 | 0.00 | 0.00 | 100 | 960.0 |
| 20260903230811 | 18 | 285 | 14.5 | 29.0 | 0.00 | 0.00 | 0.00 | 100 | 960.0 |
| 20260903230607 | 17 | 286 | 11.3 | 19.3 | 0.00 | 0.00 | 0.00 | 100 | 960.1 |
| 20260903230507 | 18 | 294 | 11.3 | 20.9 | 0.00 | 0.00 | 0.00 | 100 | 960.1 |
| 20260903230404 | 17 | 291 | 11.3 | 20.9 | 0.00 | 0.00 | 0.00 | 100 | 959.9 |
| 20260903230201 | 18 | 287 | 16.1 | 37.0 | 0.00 | 0.00 | 0.00 | 100 | 959.9 |
| 20260903225958 | 18 | 286 | 20.9 | 37.0 | 0.00 | 0.00 | 0.00 | 100 | 959.6 |
| 20260903225858 | 18 | 287 | 22.5 | 29.0 | 0.00 | 0.00 | 0.00 | 100 | 959.6 |
| 20260903225756 | 18 | 286 | 19.3 | 29.0 | 0.00 | 0.00 | 0.00 | 100 | 959.8 |
| 20260903225553 | 18 | 284 | 19.3 | 37.0 | 0.00 | 0.00 | 0.00 | 100 | 959.8 |
| 20260903225350 | 18 | 283 | 16.1 | 37.0 | 0.00 | 0.00 | 0.00 | 100 | 959.8 |
| 20260903225249 | 18 | 282 | 17.7 | 32.2 | 0.00 | 0.00 | 0.00 | 100 | 959.8 |
| 20260903225146 | 18 | 274 | 16.1 | 32.2 | 0.00 | 0.00 | 0.00 | 100 | 959.7 |
| 20260903224943 | 18 | 270 | 16.1 | 32.2 | 0.00 | 0.00 | 0.00 | 100 | 959.9 |
| 20260903224741 | 18 | 282 | 17.7 | 30.6 | 0.00 | 0.00 | 0.00 | 100 | 959.8 |
| 20260903224640 | 18 | 275 | 16.1 | 33.8 | 0.00 | 0.00 | 0.00 | 100 | 959.9 |
| 20260903224537 | 18 | 271 | 14.5 | 33.8 | 0.00 | 0.00 | 0.00 | 100 | 959.9 |
| 20260903224334 | 18 | 264 | 11.3 | 33.8 | 0.00 | 0.00 | 0.00 | 100 | 960.0 |
| 20260903224131 | 17 | 279 | 11.3 | 25.7 | 0.00 | 0.00 | 0.00 | 100 | 960.0 |
| 20260903224030 | 17 | 282 | 14.5 | 25.7 | 0.00 | 0.00 | 0.00 | 100 | 959.9 |
| 20260903223928 | 17 | 284 | 14.5 | 29.0 | 0.00 | 0.00 | 0.00 | 100 | 960.0 |
| 20260903223725 | 17 | 289 | 14.5 | 29.0 | 0.00 | 0.00 | 0.00 | 100 | 959.9 |
| 20260903223522 | 16 | 312 | 6.4 | 17.7 | 0.00 | 0.00 | 0.00 | 100 | 959.9 |
| 20260903223421 | 15 | 309 | 6.4 | 19.3 | 0.00 | 0.00 | 0.00 | 100 | 960.1 |
| 20260903223319 | 15 | 302 | 6.4 | 24.1 | 0.00 | 0.00 | 0.00 | 100 | 959.9 |
| 20260903223115 | 17 | 282 | 8.0 | 24.1 | 0.00 | 0.00 | 0.00 | 100 | 959.9 |
| 20260903222912 | 17 | 276 | 9.7 | 19.3 | 0.00 | 0.00 | 0.00 | 100 | 960.0 |
| 20260903222811 | 17 | 270 | 9.7 | 19.3 | 0.00 | 0.00 | 0.00 | 100 | 959.9 |
| 20260903222709 | 17 | 265 | 8.0 | 19.3 | 0.00 | 0.00 | 0.00 | 100 | 960.0 |
| 20260903222506 | 16 | 292 | 6.4 | 17.7 | 0.00 | 0.00 | 0.00 | 100 | 960.1 |
| 20260903222305 | 16 | 286 | 9.7 | 22.5 | 0.00 | 0.00 | 0.00 | 100 | 960.0 |
| 20260903222202 | 16 | 288 | 9.7 | 22.5 | 0.00 | 0.00 | 0.00 | 100 | 960.1 |
| 20260903222100 | 16 | 299 | 9.7 | 22.5 | 0.00 | 0.00 | 0.00 | 100 | 960.0 |
| 20260903221857 | 15 | 319 | 6.4 | 14.5 | 0.00 | 0.00 | 0.00 | 100 | 960.1 |
| 20260903221653 | 15 | 292 | 8.0 | 14.5 | 0.00 | 0.00 | 0.00 | 100 | 960.1 |
| 20260903221552 | 16 | 285 | 8.0 | 16.1 | 0.00 | 0.00 | 0.00 | 100 | 960.1 |
| 20260903221450 | 15 | 283 | 8.0 | 16.1 | 0.00 | 0.00 | 0.00 | 100 | 960.1 |
| 20260903221247 | 15 | 289 | 6.4 | 16.1 | 0.00 | 0.00 | 0.00 | 100 | 960.1 |
| 20260903221044 | 14 | 0 | 3.2 | 8.0 | 0.00 | 0.00 | 0.00 | 100 | 960.2 |
| 20260903220943 | 13 | 0 | 1.6 | 8.0 | 0.00 | 0.00 | 0.00 | 100 | 960.1 |
| 20260903220840 | 13 | 0 | 1.6 | 4.8 | 0.00 | 0.00 | 0.00 | 100 | 960.2 |
| 20260903220638 | 13 | 351 | 3.2 | 6.4 | 0.00 | 0.00 | 0.00 | 100 | 960.2 |
| 20260903220435 | 13 | 350 | 3.2 | 6.4 | 0.00 | 0.00 | 0.00 | 100 | 960.1 |
| 20260903220334 | 13 | 343 | 3.2 | 4.8 | 0.00 | 0.00 | 0.00 | 100 | 960.1 |
| 20260903220231 | 13 | 332 | 3.2 | 6.4 | 0.00 | 0.00 | 0.00 | 100 | 960.2 |
| 20260903220029 | 13 | 296 | 3.2 | 9.7 | 0.00 | 0.00 | 0.00 | 100 | 960.0 |
| 20260903215826 | 13 | 279 | 3.2 | 9.7 | 0.00 | 0.00 | 0.00 | 100 | 960.1 |
| 20260903215725 | 13 | 290 | 3.2 | 9.7 | 0.00 | 0.00 | 0.00 | 100 | 960.0 |
| 20260903215623 | 13 | 0 | 3.2 | 6.4 | 0.00 | 0.00 | 0.00 | 100 | 960.0 |
| 20260903215420 | 13 | 21 | 3.2 | 6.4 | 0.00 | 0.00 | 0.00 | 100 | 960.0 |
| 20260903215217 | 13 | 0 | 1.6 | 6.4 | 0.00 | 0.00 | 0.00 | 100 | 960.1 |
| 20260903215116 | 14 | 0 | 1.6 | 4.8 | 0.00 | 0.00 | 0.00 | 100 | 960.0 |
| 20260903215014 | 14 | 215 | 1.6 | 4.8 | 0.00 | 0.00 | 0.00 | 100 | 960.0 |
| 20260903214811 | 14 | 0 | 1.6 | 4.8 | 0.00 | 0.00 | 0.00 | 100 | 960.0 |
| 20260903214608 | 14 | 0 | 1.6 | 3.2 | 0.00 | 0.00 | 0.00 | 100 | 960.1 |
| 20260903214507 | 14 | 0 | 0.0 | 4.8 | 0.00 | 0.00 | 0.00 | 100 | 960.1 |
| 20260903214404 | 14 | 0 | 0.0 | 4.8 | 0.00 | 0.00 | 0.00 | 100 | 960.1 |
| 20260903214201 | 14 | 0 | 0.0 | 3.2 | 0.00 | 0.00 | 0.00 | 100 | 960.1 |
| 20260903213957 | 14 | 0 | 0.0 | 4.8 | 0.00 | 0.00 | 0.00 | 100 | 960.2 |
| 20260903213857 | 14 | 0 | 1.6 | 6.4 | 0.00 | 0.00 | 0.00 | 100 | 960.1 |
| 20260903213754 | 14 | 0 | 1.6 | 6.4 | 0.00 | 0.00 | 0.00 | 100 | 960.1 |
| 20260903213551 | 14 | 0 | 1.6 | 6.4 | 0.00 | 0.00 | 0.00 | 100 | 960.1 |
| 20260903213348 | 14 | 0 | 1.6 | 6.4 | 0.00 | 0.00 | 0.00 | 100 | 960.1 |
| 20260903213247 | 14 | 0 | 1.6 | 6.4 | 0.00 | 0.00 | 0.00 | 100 | 960.0 |
| 20260903213145 | 14 | 0 | 1.6 | 6.4 | 0.00 | 0.00 | 0.00 | 100 | 960.0 |
| 20260903212941 | 14 | 0 | 1.6 | 6.4 | 0.00 | 0.00 | 0.00 | 100 | 960.0 |
| 20260903212738 | 15 | 0 | 1.6 | 4.8 | 0.00 | 0.00 | 0.00 | 100 | 960.1 |
| 20260903212638 | 15 | 0 | 1.6 | 4.8 | 0.00 | 0.00 | 0.00 | 100 | 960.1 |
| 20260903212536 | 15 | 0 | 1.6 | 4.8 | 0.00 | 0.00 | 0.00 | 100 | 960.0 |
| 20260903212333 | 15 | 0 | 1.6 | 4.8 | 0.00 | 0.00 | 0.00 | 100 | 960.2 |
| 20260903212130 | 15 | 0 | 1.6 | 4.8 | 0.00 | 0.00 | 0.00 | 100 | 960.0 |
| 20260903212029 | 15 | 241 | 1.6 | 12.9 | 0.00 | 0.00 | 0.00 | 100 | 960.0 |
| 20260903211927 | 15 | 234 | 1.6 | 12.9 | 0.00 | 0.00 | 0.00 | 100 | 960.1 |
| 20260903211724 | 15 | 234 | 3.2 | 12.9 | 0.00 | 0.00 | 0.00 | 100 | 960.0 |
| 20260903211521 | 15 | 0 | 1.6 | 8.0 | 0.00 | 0.00 | 0.00 | 100 | 960.0 |
| 20260903211420 | 15 | 0 | 1.6 | 8.0 | 0.00 | 0.00 | 0.00 | 100 | 960.0 |
| 20260903211317 | 15 | 0 | 0.0 | 4.8 | 0.00 | 0.00 | 0.00 | 100 | 960.0 |
| 20260903211114 | 15 | 234 | 1.6 | 12.9 | 0.00 | 0.00 | 0.00 | 100 | 960.0 |
| 20260903210911 | 15 | 220 | 1.6 | 12.9 | 0.00 | 0.00 | 0.00 | 100 | 959.9 |
| 20260903210810 | 15 | 224 | 1.6 | 12.9 | 0.00 | 0.00 | 0.00 | 100 | 959.9 |
| 20260903210708 | 15 | 222 | 1.6 | 6.4 | 0.00 | 0.00 | 0.00 | 100 | 960.1 |
| 20260903210504 | 15 | 230 | 1.6 | 6.4 | 0.00 | 0.00 | 0.00 | 100 | 960.0 |
| 20260903210248 | 15 | 229 | 1.6 | 8.0 | 0.00 | 0.00 | 0.00 | 100 | 959.9 |
| 20260903210148 | 16 | 232 | 1.6 | 8.0 | 0.00 | 0.00 | 0.00 | 100 | 959.9 |
| 20260903210045 | 16 | 254 | 1.6 | 11.3 | 0.00 | 0.00 | 0.00 | 100 | 959.9 |
| 20260903205842 | 16 | 244 | 1.6 | 11.3 | 0.00 | 0.00 | 0.00 | 100 | 959.9 |
| 20260903205639 | 16 | 229 | 1.6 | 8.0 | 0.00 | 0.00 | 0.00 | 100 | 960.0 |
| 20260903205538 | 16 | 237 | 3.2 | 8.0 | 0.00 | 0.00 | 0.00 | 100 | 959.9 |
| 20260903205435 | 16 | 274 | 3.2 | 8.0 | 0.00 | 0.00 | 0.00 | 100 | 959.9 |
| 20260903205232 | 15 | 286 | 3.2 | 6.4 | 0.00 | 0.00 | 0.00 | 100 | 960.0 |
| 20260903205029 | 15 | 258 | 1.6 | 6.4 | 0.00 | 0.00 | 0.00 | 100 | 960.0 |
| 20260903204827 | 15 | 0 | 1.6 | 4.8 | 0.00 | 0.00 | 0.00 | 100 | 960.1 |
| 20260903204624 | 15 | 169 | 3.2 | 6.4 | 0.00 | 0.00 | 0.00 | 100 | 960.0 |
| 20260903204421 | 15 | 146 | 3.2 | 6.4 | 0.00 | 0.00 | 0.00 | 100 | 959.9 |
| 20260903204320 | 15 | 146 | 3.2 | 6.4 | 0.00 | 0.00 | 0.00 | 100 | 959.8 |
| 20260903204218 | 15 | 150 | 3.2 | 6.4 | 0.00 | 0.00 | 0.00 | 100 | 959.9 |
| 20260903204016 | 16 | 136 | 3.2 | 6.4 | 0.00 | 0.00 | 0.00 | 100 | 959.9 |
| 20260903203812 | 16 | 91 | 4.8 | 9.7 | 0.00 | 0.00 | 0.00 | 100 | 960.0 |
| 20260903203711 | 16 | 91 | 4.8 | 9.7 | 0.00 | 0.00 | 0.00 | 100 | 960.0 |
| 20260903203609 | 16 | 89 | 3.2 | 9.7 | 0.00 | 0.00 | 0.00 | 100 | 960.1 |
| 20260903203406 | 16 | 110 | 3.2 | 6.4 | 0.00 | 0.00 | 0.00 | 100 | 960.0 |
| 20260903203202 | 15 | 105 | 3.2 | 4.8 | 0.00 | 0.00 | 0.00 | 100 | 960.1 |
| 20260903203101 | 15 | 114 | 1.6 | 6.4 | 0.00 | 0.00 | 0.00 | 100 | 960.0 |
| 20260903203000 | 15 | 130 | 1.6 | 6.4 | 0.00 | 0.00 | 0.00 | 100 | 960.1 |
| 20260903202756 | 15 | 0 | 1.6 | 8.0 | 0.00 | 0.00 | 0.00 | 100 | 960.1 |
| 20260903202553 | 16 | 312 | 3.2 | 9.7 | 0.00 | 0.00 | 0.00 | 100 | 960.2 |
| 20260903202452 | 16 | 316 | 3.2 | 9.7 | 0.00 | 0.00 | 0.00 | 100 | 960.1 |
| 20260903202350 | 16 | 306 | 3.2 | 9.7 | 0.00 | 0.00 | 0.00 | 100 | 960.1 |
| 20260903202146 | 16 | 10 | 3.2 | 4.8 | 0.00 | 0.00 | 0.00 | 100 | 960.1 |
| 20260903201943 | 16 | 340 | 3.2 | 6.4 | 0.00 | 0.00 | 0.00 | 100 | 960.0 |
| 20260903201844 | 16 | 337 | 1.6 | 6.4 | 0.00 | 0.00 | 0.00 | 100 | 960.0 |
| 20260903201740 | 16 | 317 | 1.6 | 6.4 | 0.00 | 0.00 | 0.00 | 100 | 960.1 |
| 20260903201537 | 16 | 348 | 1.6 | 8.0 | 0.00 | 0.00 | 0.00 | 100 | 959.9 |
| 20260903201333 | 16 | 6 | 1.6 | 8.0 | 0.00 | 0.00 | 0.00 | 100 | 960.0 |
| 20260903201234 | 16 | 0 | 1.6 | 3.2 | 0.00 | 0.00 | 0.00 | 100 | 960.0 |
| 20260903201131 | 16 | 0 | 1.6 | 3.2 | 0.00 | 0.00 | 0.00 | 100 | 960.1 |
| 20260903200928 | 16 | 355 | 3.2 | 4.8 | 0.00 | 0.00 | 0.00 | 100 | 960.0 |
| 20260903200724 | 16 | 355 | 1.6 | 4.8 | 0.00 | 0.00 | 0.00 | 100 | 960.2 |
| 20260903200623 | 16 | 344 | 1.6 | 9.7 | 0.00 | 0.00 | 0.00 | 100 | 960.1 |
| 20260903200521 | 16 | 270 | 3.2 | 16.1 | 0.00 | 0.00 | 0.00 | 100 | 960.1 |
| 20260903200318 | 17 | 257 | 6.4 | 24.1 | 0.00 | 0.00 | 0.00 | 100 | 960.2 |
| 20260903200115 | 17 | 244 | 8.0 | 27.4 | 0.00 | 0.00 | 0.00 | 100 | 960.0 |
| 20260903200014 | 17 | 252 | 8.0 | 27.4 | 0.00 | 0.00 | 0.00 | 100 | 960.0 |
| 20260903195911 | 17 | 253 | 9.7 | 27.4 | 0.00 | 0.00 | 0.00 | 100 | 960.1 |
| 20260903195707 | 17 | 270 | 8.0 | 25.7 | 0.00 | 0.00 | 0.00 | 100 | 960.0 |
| 20260903195504 | 16 | 276 | 4.8 | 25.7 | 0.00 | 0.00 | 0.00 | 100 | 960.1 |
| 20260903195404 | 16 | 262 | 3.2 | 9.7 | 0.00 | 0.00 | 0.00 | 100 | 960.1 |
| 20260903195301 | 16 | 246 | 3.2 | 11.3 | 0.00 | 0.00 | 0.00 | 100 | 960.1 |
| 20260903195058 | 16 | 234 | 1.6 | 11.3 | 0.00 | 0.00 | 0.00 | 100 | 960.1 |
| 20260903194855 | 16 | 230 | 1.6 | 4.8 | 0.00 | 0.00 | 0.00 | 100 | 960.0 |
| 20260903194754 | 17 | 240 | 1.6 | 11.3 | 0.00 | 0.00 | 0.00 | 100 | 960.2 |
| 20260903194652 | 17 | 285 | 3.2 | 11.3 | 0.00 | 0.00 | 0.00 | 100 | 960.2 |
| 20260903194449 | 17 | 269 | 6.4 | 19.3 | 0.00 | 0.00 | 0.00 | 100 | 960.2 |
| 20260903194246 | 17 | 265 | 8.0 | 19.3 | 0.00 | 0.00 | 0.00 | 100 | 960.1 |
| 20260903194145 | 17 | 273 | 9.7 | 19.3 | 0.00 | 0.00 | 0.00 | 100 | 960.2 |
| 20260903194042 | 17 | 270 | 9.7 | 19.3 | 0.00 | 0.00 | 0.00 | 100 | 960.1 |
| 20260903193839 | 16 | 261 | 8.0 | 19.3 | 0.00 | 0.00 | 0.00 | 100 | 960.1 |
| 20260903193636 | 16 | 244 | 4.8 | 17.7 | 0.00 | 0.00 | 0.00 | 100 | 960.2 |
| 20260903193535 | 16 | 265 | 4.8 | 17.7 | 0.00 | 0.00 | 0.00 | 100 | 960.1 |
| 20260903193432 | 16 | 268 | 6.4 | 27.4 | 0.00 | 0.00 | 0.00 | 100 | 960.2 |
| 20260903193229 | 16 | 273 | 6.4 | 27.4 | 0.00 | 0.00 | 0.00 | 100 | 960.2 |
| 20260903193025 | 14 | 0 | 1.6 | 14.5 | 0.00 | 0.00 | 0.00 | 100 | 960.1 |
| 20260903192925 | 15 | 0 | 1.6 | 6.4 | 0.00 | 0.00 | 0.00 | 100 | 960.3 |
| 20260903192822 | 15 | 0 | 1.6 | 8.0 | 0.00 | 0.00 | 0.00 | 100 | 960.2 |
| 20260903192619 | 15 | 244 | 1.6 | 8.0 | 0.00 | 0.00 | 0.00 | 100 | 960.2 |
| 20260903192415 | 15 | 242 | 1.6 | 6.4 | 0.00 | 0.00 | 0.00 | 100 | 960.1 |
| 20260903192315 | 15 | 0 | 1.6 | 6.4 | 0.00 | 0.00 | 0.00 | 100 | 960.2 |
| 20260903192213 | 15 | 0 | 1.6 | 6.4 | 0.00 | 0.00 | 0.00 | 100 | 960.2 |
| 20260903192009 | 15 | 0 | 1.6 | 6.4 | 0.00 | 0.00 | 0.00 | 100 | 960.3 |
| 20260903191806 | 15 | 0 | 1.6 | 4.8 | 0.00 | 0.00 | 0.00 | 100 | 960.3 |
| 20260903191705 | 15 | 0 | 1.6 | 4.8 | 0.00 | 0.00 | 0.00 | 100 | 960.2 |
| 20260903191603 | 15 | 0 | 1.6 | 4.8 | 0.00 | 0.00 | 0.00 | 100 | 960.3 |
| 20260903191400 | 15 | 248 | 3.2 | 9.7 | 0.00 | 0.00 | 0.00 | 100 | 960.3 |
| 20260903191157 | 15 | 239 | 1.6 | 9.7 | 0.00 | 0.00 | 0.00 | 100 | 960.2 |
| 20260903191056 | 15 | 238 | 1.6 | 9.7 | 0.00 | 0.00 | 0.00 | 100 | 960.4 |
| 20260903190953 | 15 | 0 | 1.6 | 4.8 | 0.00 | 0.00 | 0.00 | 100 | 960.4 |
| 20260903190750 | 15 | 215 | 1.6 | 8.0 | 0.00 | 0.00 | 0.00 | 100 | 960.3 |
| 20260903190547 | 15 | 217 | 1.6 | 8.0 | 0.00 | 0.00 | 0.00 | 100 | 960.4 |
| 20260903190446 | 15 | 223 | 1.6 | 8.0 | 0.00 | 0.00 | 0.00 | 100 | 960.4 |
| 20260903190344 | 15 | 231 | 3.2 | 9.7 | 0.00 | 0.00 | 0.00 | 100 | 960.4 |
| 20260903190141 | 15 | 241 | 3.2 | 9.7 | 0.00 | 0.00 | 0.00 | 100 | 960.3 |
| 20260903185937 | 15 | 0 | 1.6 | 6.4 | 0.00 | 0.00 | 0.00 | 100 | 960.3 |
| 20260903185837 | 15 | 0 | 1.6 | 9.7 | 0.00 | 0.00 | 0.00 | 100 | 960.2 |
| 20260903185734 | 15 | 220 | 1.6 | 9.7 | 0.00 | 0.00 | 0.00 | 100 | 960.2 |
| 20260903185531 | 15 | 237 | 1.6 | 9.7 | 0.00 | 0.00 | 0.00 | 100 | 960.3 |
| 20260903185328 | 15 | 0 | 1.6 | 9.7 | 0.00 | 0.00 | 0.00 | 100 | 960.4 |
| 20260903185227 | 15 | 0 | 1.6 | 6.4 | 0.00 | 0.00 | 0.00 | 100 | 960.4 |
| 20260903185125 | 15 | 0 | 1.6 | 6.4 | 0.00 | 0.00 | 0.00 | 100 | 960.4 |
| 20260903184923 | 15 | 230 | 1.6 | 6.4 | 0.00 | 0.00 | 0.00 | 100 | 960.3 |
| 20260903184719 | 15 | 0 | 1.6 | 4.8 | 0.00 | 0.00 | 0.00 | 100 | 960.3 |
| 20260903184619 | 15 | 0 | 1.6 | 4.8 | 0.00 | 0.00 | 0.00 | 100 | 960.3 |
| 20260903184516 | 15 | 0 | 1.6 | 6.4 | 0.00 | 0.00 | 0.00 | 100 | 960.3 |
| 20260903184314 | 15 | 228 | 1.6 | 6.4 | 0.00 | 0.00 | 0.00 | 100 | 960.2 |
| 20260903184110 | 15 | 0 | 1.6 | 6.4 | 0.00 | 0.00 | 0.00 | 100 | 960.3 |
| 20260903184009 | 15 | 0 | 0.0 | 4.8 | 0.00 | 0.00 | 0.00 | 100 | 960.3 |
| 20260903183907 | 15 | 0 | 1.6 | 6.4 | 0.00 | 0.00 | 0.00 | 100 | 960.2 |
| 20260903183704 | 15 | 0 | 1.6 | 6.4 | 0.00 | 0.00 | 0.00 | 100 | 960.3 |
| 20260903183501 | 15 | 0 | 1.6 | 6.4 | 0.00 | 0.00 | 0.00 | 100 | 960.2 |
| 20260903183259 | 15 | 0 | 1.6 | 6.4 | 0.00 | 0.00 | 0.00 | 100 | 960.3 |
| 20260903183055 | 15 | 0 | 1.6 | 4.8 | 0.00 | 0.00 | 0.00 | 100 | 960.2 |
| 20260903182852 | 15 | 0 | 1.6 | 6.4 | 0.00 | 0.00 | 0.00 | 100 | 960.2 |
| 20260903182752 | 15 | 0 | 1.6 | 6.4 | 0.00 | 0.00 | 0.00 | 100 | 960.2 |
| 20260903182649 | 15 | 0 | 1.6 | 6.4 | 0.00 | 0.00 | 0.00 | 100 | 960.2 |
| 20260903182446 | 15 | 0 | 1.6 | 6.4 | 0.00 | 0.00 | 0.00 | 100 | 960.2 |
| 20260903182233 | 15 | 0 | 0.0 | 6.4 | 0.00 | 0.00 | 0.00 | 100 | 960.1 |
| 20260903182132 | 15 | 0 | 0.0 | 6.4 | 0.00 | 0.00 | 0.00 | 100 | 960.2 |
| 20260903182030 | 15 | 0 | 0.0 | 3.2 | 0.00 | 0.00 | 0.00 | 100 | 960.2 |
| 20260903181827 | 15 | 0 | 0.0 | 3.2 | 0.00 | 0.00 | 0.00 | 100 | 960.2 |
| 20260903181624 | 15 | 0 | 0.0 | 3.2 | 0.00 | 0.00 | 0.00 | 100 | 960.2 |
| 20260903181523 | 15 | 0 | 0.0 | 3.2 | 0.00 | 0.00 | 0.00 | 100 | 960.1 |
| 20260903181421 | 15 | 0 | 0.0 | 4.8 | 0.00 | 0.00 | 0.00 | 100 | 960.0 |
| 20260903181217 | 15 | 0 | 1.6 | 4.8 | 0.00 | 0.00 | 0.00 | 100 | 960.0 |
| 20260903181014 | 15 | 0 | 1.6 | 3.2 | 0.00 | 0.00 | 0.00 | 100 | 960.1 |
| 20260903180913 | 15 | 0 | 1.6 | 4.8 | 0.00 | 0.00 | 0.00 | 100 | 960.1 |
| 20260903180811 | 15 | 0 | 1.6 | 4.8 | 0.00 | 0.00 | 0.00 | 100 | 960.1 |
| 20260903180607 | 15 | 0 | 0.0 | 3.2 | 0.00 | 0.00 | 0.00 | 100 | 960.1 |
| 20260903180404 | 15 | 0 | 0.0 | 3.2 | 0.00 | 0.00 | 0.00 | 100 | 960.0 |
| 20260903180304 | 15 | 0 | 0.0 | 4.8 | 0.00 | 0.00 | 0.00 | 100 | 960.0 |
| 20260903180202 | 15 | 0 | 0.0 | 4.8 | 0.00 | 0.00 | 0.00 | 100 | 960.0 |
| 20260903175959 | 15 | 0 | 0.0 | 4.8 | 0.00 | 0.00 | 0.00 | 100 | 960.0 |
| 20260903175756 | 15 | 0 | 1.6 | 4.8 | 0.00 | 0.00 | 0.00 | 100 | 959.9 |
| 20260903175655 | 15 | 0 | 0.0 | 4.8 | 0.00 | 0.00 | 0.00 | 100 | 960.0 |
| 20260903175553 | 15 | 0 | 1.6 | 4.8 | 0.00 | 0.00 | 0.00 | 100 | 960.0 |
| 20260903175350 | 16 | 0 | 1.6 | 4.8 | 0.00 | 0.00 | 0.00 | 100 | 960.1 |
| 20260903175147 | 16 | 0 | 1.6 | 4.8 | 0.00 | 0.00 | 0.00 | 100 | 960.2 |
| 20260903175046 | 16 | 0 | 1.6 | 4.8 | 0.00 | 0.00 | 0.00 | 100 | 960.1 |
| 20260903174943 | 16 | 0 | 1.6 | 8.0 | 0.00 | 0.00 | 0.00 | 100 | 960.2 |
| 20260903174740 | 16 | 0 | 1.6 | 8.0 | 0.00 | 0.00 | 0.00 | 100 | 960.2 |
| 20260903174538 | 16 | 0 | 1.6 | 6.4 | 0.00 | 0.00 | 0.00 | 100 | 960.1 |
| 20260903174437 | 16 | 0 | 1.6 | 6.4 | 0.00 | 0.00 | 0.00 | 100 | 960.1 |
| 20260903174334 | 16 | 0 | 1.6 | 4.8 | 0.00 | 0.00 | 0.00 | 100 | 960.2 |
| 20260903174131 | 16 | 0 | 0.0 | 4.8 | 0.00 | 0.00 | 0.00 | 100 | 960.1 |
| 20260903173927 | 16 | 0 | 0.0 | 4.8 | 0.00 | 0.00 | 0.00 | 100 | 960.1 |
| 20260903173827 | 16 | 0 | 1.6 | 4.8 | 0.00 | 0.00 | 0.00 | 100 | 960.0 |
| 20260903173724 | 16 | 0 | 1.6 | 4.8 | 0.00 | 0.00 | 0.00 | 100 | 960.0 |
| 20260903173521 | 16 | 0 | 1.6 | 4.8 | 0.00 | 0.00 | 0.00 | 100 | 960.0 |
| 20260903173318 | 16 | 0 | 1.6 | 4.8 | 0.00 | 0.00 | 0.00 | 100 | 960.0 |
| 20260903173218 | 16 | 0 | 1.6 | 4.8 | 0.00 | 0.00 | 0.00 | 100 | 960.0 |
| 20260903173116 | 17 | 0 | 1.6 | 6.4 | 0.00 | 0.00 | 0.00 | 100 | 959.9 |
| 20260903172912 | 17 | 263 | 1.6 | 16.1 | 0.00 | 0.00 | 0.00 | 100 | 960.1 |
| 20260903172709 | 17 | 260 | 3.2 | 16.1 | 0.00 | 0.00 | 0.00 | 100 | 960.0 |
| 20260903172506 | 17 | 0 | 1.6 | 9.7 | 0.00 | 0.00 | 0.00 | 100 | 960.1 |
| 20260903172306 | 17 | 0 | 0.0 | 4.8 | 0.00 | 0.00 | 0.00 | 100 | 960.1 |
| 20260903172059 | 17 | 0 | 1.6 | 6.4 | 0.00 | 0.00 | 0.00 | 100 | 960.1 |
| 20260903171958 | 17 | 0 | 1.6 | 6.4 | 0.00 | 0.00 | 0.00 | 100 | 960.1 |
| 20260903171856 | 17 | 0 | 1.6 | 6.4 | 0.00 | 0.00 | 0.00 | 100 | 960.1 |
| 20260903171653 | 17 | 0 | 1.6 | 3.2 | 0.00 | 0.00 | 0.00 | 100 | 960.1 |
| 20260903171450 | 17 | 0 | 0.0 | 4.8 | 0.00 | 0.00 | 0.00 | 100 | 960.1 |
| 20260903171350 | 17 | 0 | 0.0 | 3.2 | 0.00 | 0.00 | 0.00 | 100 | 960.0 |
| 20260903171248 | 17 | 0 | 0.0 | 3.2 | 0.00 | 0.00 | 0.00 | 100 | 959.9 |
| 20260903171045 | 17 | 0 | 0.0 | 4.8 | 0.00 | 0.00 | 0.00 | 100 | 959.9 |
| 20260903170842 | 17 | 0 | 1.6 | 4.8 | 0.00 | 0.00 | 0.00 | 100 | 960.0 |
| 20260903170741 | 17 | 0 | 1.6 | 3.2 | 0.00 | 0.00 | 0.00 | 100 | 960.0 |
| 20260903170638 | 17 | 0 | 0.0 | 3.2 | 0.00 | 0.00 | 0.00 | 100 | 959.9 |
| 20260903170436 | 17 | 0 | 0.0 | 3.2 | 0.00 | 0.00 | 0.00 | 100 | 959.9 |
| 20260903170233 | 17 | 0 | 0.0 | 3.2 | 0.00 | 0.00 | 0.00 | 100 | 960.0 |
| 20260903170133 | 18 | 0 | 0.0 | 3.2 | 0.00 | 0.00 | 0.00 | 100 | 960.0 |
| 20260903170030 | 18 | 0 | 0.0 | 3.2 | 0.00 | 0.00 | 0.00 | 100 | 960.0 |
| 20260903165827 | 18 | 0 | 0.0 | 3.2 | 0.00 | 0.00 | 0.00 | 100 | 960.0 |
| 20260903165624 | 18 | 0 | 0.0 | 3.2 | 0.00 | 0.00 | 0.00 | 100 | 960.1 |
| 20260903165523 | 18 | 0 | 0.0 | 3.2 | 0.00 | 0.00 | 0.00 | 100 | 960.0 |
| 20260903165421 | 18 | 0 | 0.0 | 1.6 | 0.00 | 0.00 | 0.00 | 100 | 960.0 |
| 20260903165217 | 18 | 0 | 0.0 | 1.6 | 0.00 | 0.00 | 0.00 | 100 | 960.0 |
| 20260903165014 | 18 | 0 | 0.0 | 3.2 | 0.00 | 0.00 | 0.00 | 100 | 959.9 |
| 20260903164913 | 18 | 0 | 0.0 | 3.2 | 0.00 | 0.00 | 0.00 | 100 | 960.0 |
| 20260903164811 | 18 | 0 | 0.0 | 3.2 | 0.00 | 0.00 | 0.00 | 100 | 960.0 |
| 20260903164608 | 18 | 0 | 0.0 | 3.2 | 0.00 | 0.00 | 0.00 | 100 | 960.1 |
| 20260903164405 | 18 | 0 | 0.0 | 3.2 | 0.00 | 0.00 | 0.00 | 100 | 960.1 |
| 20260903164304 | 18 | 0 | 0.0 | 3.2 | 0.00 | 0.00 | 0.00 | 100 | 960.0 |
| 20260903164201 | 18 | 0 | 0.0 | 1.6 | 0.00 | 0.00 | 0.00 | 100 | 960.0 |
| 20260903163958 | 18 | 0 | 0.0 | 3.2 | 0.00 | 0.00 | 0.00 | 100 | 960.0 |
| 20260903163755 | 19 | 0 | 0.0 | 3.2 | 0.00 | 0.00 | 0.00 | 100 | 960.0 |
| 20260903163654 | 19 | 0 | 0.0 | 3.2 | 0.00 | 0.00 | 0.00 | 100 | 960.0 |
| 20260903163551 | 19 | 0 | 0.0 | 3.2 | 0.00 | 0.00 | 0.00 | 100 | 960.0 |
| 20260903163348 | 19 | 0 | 0.0 | 3.2 | 0.00 | 0.00 | 0.00 | 100 | 960.0 |
| 20260903163144 | 19 | 0 | 0.0 | 3.2 | 0.00 | 0.00 | 0.00 | 100 | 960.0 |
| 20260903163044 | 19 | 0 | 0.0 | 3.2 | 0.00 | 0.00 | 0.00 | 100 | 959.9 |
| 20260903162942 | 19 | 0 | 0.0 | 3.2 | 0.00 | 0.00 | 0.00 | 100 | 960.0 |
| 20260903162739 | 19 | 0 | 0.0 | 3.2 | 0.00 | 0.00 | 0.00 | 100 | 959.9 |
| 20260903162537 | 19 | 0 | 0.0 | 3.2 | 0.00 | 0.00 | 0.00 | 100 | 960.0 |
| 20260903162436 | 19 | 0 | 0.0 | 3.2 | 0.00 | 0.00 | 0.00 | 100 | 959.8 |
| 20260903162333 | 19 | 0 | 0.0 | 1.6 | 0.00 | 0.00 | 0.00 | 100 | 960.0 |
| 20260903162130 | 19 | 0 | 0.0 | 3.2 | 0.00 | 0.00 | 0.00 | 100 | 959.9 |
| 20260903161927 | 18 | 0 | 0.0 | 3.2 | 0.00 | 0.00 | 0.00 | 100 | 959.9 |
| 20260903161826 | 18 | 0 | 0.0 | 3.2 | 0.00 | 0.00 | 0.00 | 100 | 960.0 |
| 20260903161724 | 18 | 0 | 0.0 | 4.8 | 0.00 | 0.00 | 0.00 | 100 | 960.0 |
| 20260903161520 | 18 | 268 | 1.6 | 6.4 | 0.00 | 0.00 | 0.00 | 100 | 960.0 |
| 20260903161317 | 18 | 270 | 3.2 | 6.4 | 0.00 | 0.00 | 0.00 | 100 | 960.0 |
| 20260903161217 | 19 | 269 | 1.6 | 4.8 | 0.00 | 0.00 | 0.00 | 100 | 960.0 |
| 20260903161115 | 19 | 267 | 1.6 | 6.4 | 0.00 | 0.00 | 0.00 | 100 | 960.0 |
| 20260903160912 | 19 | 267 | 1.6 | 6.4 | 0.00 | 0.00 | 0.00 | 100 | 959.9 |
| 20260903160708 | 19 | 0 | 0.0 | 3.2 | 0.00 | 0.00 | 0.00 | 100 | 960.0 |
| 20260903160607 | 19 | 320 | 1.6 | 4.8 | 0.00 | 0.00 | 0.00 | 100 | 960.0 |
| 20260903160505 | 19 | 320 | 1.6 | 4.8 | 0.00 | 0.00 | 0.00 | 100 | 960.0 |
| 20260903160301 | 19 | 298 | 1.6 | 4.8 | 0.00 | 0.00 | 0.00 | 100 | 959.9 |
| 20260903160058 | 19 | 268 | 1.6 | 4.8 | 0.00 | 0.00 | 0.00 | 100 | 960.0 |
| 20260903155957 | 19 | 266 | 1.6 | 6.4 | 0.00 | 0.00 | 0.00 | 100 | 959.9 |
| 20260903155855 | 19 | 253 | 1.6 | 6.4 | 0.00 | 0.00 | 0.00 | 100 | 959.9 |
| 20260903155652 | 19 | 0 | 1.6 | 6.4 | 0.00 | 0.00 | 0.00 | 100 | 959.9 |
| 20260903155448 | 20 | 0 | 0.0 | 6.4 | 0.00 | 0.00 | 0.00 | 100 | 959.9 |
| 20260903155348 | 20 | 0 | 0.0 | 3.2 | 0.00 | 0.00 | 0.00 | 100 | 959.9 |
| 20260903155246 | 20 | 0 | 0.0 | 3.2 | 0.00 | 0.00 | 0.00 | 100 | 959.9 |
| 20260903155043 | 20 | 0 | 0.0 | 4.8 | 0.00 | 0.00 | 0.00 | 100 | 960.0 |
| 20260903154839 | 20 | 0 | 0.0 | 6.4 | 0.00 | 0.00 | 0.00 | 100 | 959.9 |
| 20260903154739 | 20 | 0 | 1.6 | 6.4 | 0.00 | 0.00 | 0.00 | 100 | 960.0 |
| 20260903154636 | 20 | 0 | 1.6 | 6.4 | 0.00 | 0.00 | 0.00 | 100 | 960.0 |
| 20260903154420 | 20 | 0 | 1.6 | 4.8 | 0.00 | 0.00 | 0.00 | 100 | 960.0 |
| 20260903154217 | 20 | 227 | 1.6 | 6.4 | 0.00 | 0.00 | 0.00 | 100 | 960.0 |
| 20260903154116 | 20 | 231 | 1.6 | 6.4 | 0.00 | 0.00 | 0.00 | 100 | 960.1 |
| 20260903154013 | 20 | 239 | 1.6 | 6.4 | 0.00 | 0.00 | 0.00 | 100 | 960.1 |
| 20260903153810 | 20 | 251 | 1.6 | 6.4 | 0.00 | 0.00 | 0.00 | 100 | 960.2 |
| 20260903153607 | 20 | 0 | 1.6 | 4.8 | 0.00 | 0.00 | 0.00 | 100 | 960.1 |
| 20260903153507 | 19 | 141 | 1.6 | 8.0 | 0.00 | 0.00 | 0.00 | 100 | 960.1 |
| 20260903153404 | 19 | 135 | 3.2 | 8.0 | 0.00 | 0.00 | 0.00 | 100 | 960.2 |
| 20260903153201 | 19 | 152 | 4.8 | 8.0 | 0.00 | 0.00 | 0.00 | 100 | 960.1 |
| 20260903152958 | 19 | 301 | 4.8 | 8.0 | 0.00 | 0.00 | 0.00 | 100 | 960.0 |
| 20260903152857 | 19 | 305 | 4.8 | 8.0 | 0.00 | 0.00 | 0.00 | 100 | 960.1 |
| 20260903152755 | 19 | 307 | 4.8 | 8.0 | 0.00 | 0.00 | 0.00 | 100 | 960.1 |
| 20260903152552 | 19 | 292 | 3.2 | 8.0 | 0.00 | 0.00 | 0.00 | 100 | 960.1 |
| 20260903152349 | 19 | 274 | 3.2 | 8.0 | 0.00 | 0.00 | 0.00 | 100 | 960.1 |
| 20260903152248 | 19 | 278 | 3.2 | 8.0 | 0.00 | 0.00 | 0.00 | 100 | 960.0 |
| 20260903152146 | 19 | 287 | 4.8 | 9.7 | 0.00 | 0.00 | 0.00 | 100 | 960.2 |
| 20260903151942 | 19 | 305 | 4.8 | 9.7 | 0.00 | 0.00 | 0.00 | 100 | 960.2 |
| 20260903151740 | 19 | 305 | 3.2 | 6.4 | 0.00 | 0.00 | 0.00 | 100 | 960.2 |
| 20260903151639 | 19 | 298 | 3.2 | 8.0 | 0.00 | 0.00 | 0.00 | 100 | 960.1 |
| 20260903151536 | 19 | 284 | 3.2 | 8.0 | 0.00 | 0.00 | 0.00 | 100 | 960.1 |
| 20260903151333 | 19 | 299 | 4.8 | 8.0 | 0.00 | 0.00 | 0.00 | 100 | 960.2 |
| 20260903151130 | 19 | 295 | 3.2 | 8.0 | 0.00 | 0.00 | 0.00 | 100 | 960.2 |
| 20260903151029 | 19 | 277 | 3.2 | 11.3 | 0.00 | 0.00 | 0.00 | 100 | 960.2 |
| 20260903150927 | 19 | 262 | 3.2 | 11.3 | 0.00 | 0.00 | 0.00 | 100 | 960.2 |
| 20260903150724 | 19 | 282 | 8.0 | 12.9 | 0.00 | 0.00 | 0.00 | 100 | 960.2 |
| 20260903150520 | 18 | 294 | 9.7 | 12.9 | 0.00 | 0.00 | 0.00 | 100 | 960.3 |
| 20260903150420 | 18 | 299 | 9.7 | 12.9 | 0.00 | 0.00 | 0.00 | 100 | 960.2 |
| 20260903150317 | 19 | 313 | 8.0 | 11.3 | 0.00 | 0.00 | 0.00 | 100 | 960.2 |
| 20260903150114 | 19 | 314 | 6.4 | 12.9 | 0.00 | 0.00 | 0.00 | 100 | 960.1 |
| 20260903145911 | 19 | 321 | 6.4 | 12.9 | 0.00 | 0.00 | 0.00 | 100 | 960.2 |
| 20260903145810 | 19 | 319 | 4.8 | 12.9 | 0.00 | 0.00 | 0.00 | 100 | 960.2 |
| 20260903145707 | 19 | 306 | 4.8 | 8.0 | 0.00 | 0.00 | 0.00 | 100 | 960.2 |
| 20260903145504 | 19 | 276 | 4.8 | 9.7 | 0.00 | 0.00 | 0.00 | 100 | 960.2 |
| 20260903145301 | 19 | 302 | 8.0 | 19.3 | 0.00 | 0.00 | 0.00 | 100 | 960.2 |
| 20260903145200 | 19 | 301 | 8.0 | 19.3 | 0.00 | 0.00 | 0.00 | 100 | 960.1 |
| 20260903145057 | 19 | 302 | 9.7 | 19.3 | 0.00 | 0.00 | 0.00 | 100 | 960.2 |
| 20260903144854 | 19 | 300 | 9.7 | 14.5 | 0.00 | 0.00 | 0.00 | 100 | 960.1 |
| 20260903144651 | 19 | 312 | 9.7 | 14.5 | 0.00 | 0.00 | 0.00 | 100 | 960.1 |
| 20260903144551 | 19 | 317 | 9.7 | 16.1 | 0.00 | 0.00 | 0.00 | 100 | 960.2 |
| 20260903144447 | 19 | 319 | 6.4 | 16.1 | 0.00 | 0.00 | 0.00 | 100 | 960.2 |
| 20260903144244 | 19 | 321 | 6.4 | 16.1 | 0.00 | 0.00 | 0.00 | 100 | 960.1 |
| 20260903144041 | 19 | 330 | 6.4 | 16.1 | 0.00 | 0.00 | 0.00 | 100 | 960.0 |
| 20260903143838 | 19 | 326 | 4.8 | 9.7 | 0.00 | 0.00 | 0.00 | 100 | 960.1 |
| 20260903143634 | 19 | 282 | 6.4 | 11.3 | 0.00 | 0.00 | 0.00 | 100 | 960.1 |
| 20260903143431 | 19 | 261 | 6.4 | 12.9 | 0.00 | 0.00 | 0.00 | 100 | 960.1 |
| 20260903143330 | 19 | 262 | 6.4 | 16.1 | 0.00 | 0.00 | 0.00 | 100 | 960.1 |
| 20260903143228 | 19 | 271 | 6.4 | 16.1 | 0.00 | 0.00 | 0.00 | 100 | 960.1 |
| 20260903143025 | 19 | 296 | 8.0 | 16.1 | 0.00 | 0.00 | 0.00 | 100 | 960.1 |
| 20260903142822 | 19 | 319 | 6.4 | 12.9 | 0.00 | 0.00 | 0.00 | 100 | 960.2 |
| 20260903142721 | 19 | 313 | 8.0 | 16.1 | 0.00 | 0.00 | 0.00 | 100 | 960.1 |
| 20260903142619 | 19 | 311 | 9.7 | 16.1 | 0.00 | 0.00 | 0.00 | 100 | 960.2 |
| 20260903142415 | 19 | 291 | 9.7 | 16.1 | 0.00 | 0.00 | 0.00 | 100 | 960.2 |
| 20260903142212 | 19 | 285 | 8.0 | 16.1 | 0.00 | 0.00 | 0.00 | 100 | 960.2 |
| 20260903142111 | 19 | 285 | 8.0 | 16.1 | 0.00 | 0.00 | 0.00 | 100 | 960.2 |
| 20260903142009 | 19 | 288 | 8.0 | 16.1 | 0.00 | 0.00 | 0.00 | 100 | 960.2 |
| 20260903141806 | 19 | 290 | 9.7 | 14.5 | 0.00 | 0.00 | 0.00 | 100 | 960.1 |
| 20260903141604 | 19 | 287 | 9.7 | 14.5 | 0.00 | 0.00 | 0.00 | 100 | 960.3 |
| 20260903141503 | 19 | 284 | 9.7 | 14.5 | 0.00 | 0.00 | 0.00 | 100 | 960.2 |
| 20260903141400 | 19 | 282 | 9.7 | 17.7 | 0.00 | 0.00 | 0.00 | 100 | 960.2 |
| 20260903141157 | 19 | 284 | 9.7 | 17.7 | 0.00 | 0.00 | 0.00 | 100 | 960.2 |
| 20260903140954 | 19 | 294 | 6.4 | 12.9 | 0.00 | 0.00 | 0.00 | 100 | 960.3 |
| 20260903140853 | 19 | 304 | 6.4 | 11.3 | 0.00 | 0.00 | 0.00 | 100 | 960.3 |
| 20260903140750 | 19 | 311 | 6.4 | 11.3 | 0.00 | 0.00 | 0.00 | 100 | 960.3 |
| 20260903140547 | 20 | 298 | 4.8 | 9.7 | 0.00 | 0.00 | 0.00 | 100 | 960.2 |
| 20260903140344 | 20 | 287 | 6.4 | 9.7 | 0.00 | 0.00 | 0.00 | 100 | 960.2 |
| 20260903140243 | 19 | 288 | 6.4 | 11.3 | 0.00 | 0.00 | 0.00 | 100 | 960.2 |
| 20260903140141 | 19 | 289 | 8.0 | 12.9 | 0.00 | 0.00 | 0.00 | 100 | 960.2 |
| 20260903135937 | 19 | 292 | 9.7 | 16.1 | 0.00 | 0.00 | 0.00 | 100 | 960.1 |
| 20260903135734 | 20 | 288 | 9.7 | 16.1 | 0.00 | 0.00 | 0.00 | 100 | 960.1 |
| 20260903135634 | 19 | 288 | 9.7 | 16.1 | 0.00 | 0.00 | 0.00 | 100 | 960.1 |
| 20260903135531 | 20 | 287 | 9.7 | 17.7 | 0.00 | 0.00 | 0.00 | 100 | 960.1 |
| 20260903135328 | 19 | 287 | 11.3 | 17.7 | 0.00 | 0.00 | 0.00 | 100 | 960.1 |
| 20260903135125 | 19 | 298 | 11.3 | 17.7 | 0.00 | 0.00 | 0.00 | 100 | 960.1 |
| 20260903135024 | 19 | 301 | 9.7 | 14.5 | 0.00 | 0.00 | 0.00 | 100 | 960.1 |
| 20260903134922 | 19 | 301 | 8.0 | 12.9 | 0.00 | 0.00 | 0.00 | 100 | 960.1 |
| 20260903134718 | 19 | 287 | 9.7 | 20.9 | 0.00 | 0.00 | 0.00 | 100 | 960.2 |
| 20260903134515 | 19 | 292 | 11.3 | 20.9 | 0.00 | 0.00 | 0.00 | 100 | 960.1 |
| 20260903134415 | 19 | 298 | 11.3 | 20.9 | 0.00 | 0.00 | 0.00 | 100 | 960.1 |
| 20260903134313 | 19 | 299 | 9.7 | 17.7 | 0.00 | 0.00 | 0.00 | 100 | 960.1 |
| 20260903134110 | 19 | 300 | 11.3 | 20.9 | 0.00 | 0.00 | 0.00 | 100 | 960.2 |
| 20260903133907 | 18 | 309 | 12.9 | 22.5 | 0.00 | 0.00 | 0.00 | 100 | 960.3 |
| 20260903133806 | 18 | 312 | 12.9 | 22.5 | 0.00 | 0.00 | 0.00 | 100 | 960.2 |
| 20260903133704 | 18 | 315 | 12.9 | 22.5 | 0.00 | 0.00 | 0.00 | 100 | 960.1 |
| 20260903133500 | 18 | 307 | 12.9 | 20.9 | 0.00 | 0.00 | 0.00 | 100 | 960.3 |
| 20260903133257 | 18 | 304 | 12.9 | 20.9 | 0.00 | 0.00 | 0.00 | 100 | 960.2 |
| 20260903133156 | 18 | 307 | 12.9 | 22.5 | 0.00 | 0.00 | 0.00 | 100 | 960.4 |
| 20260903133053 | 18 | 311 | 12.9 | 22.5 | 0.00 | 0.00 | 0.00 | 100 | 960.3 |
| 20260903132850 | 18 | 314 | 16.1 | 25.7 | 0.00 | 0.00 | 0.00 | 100 | 960.3 |
| 20260903132648 | 18 | 313 | 16.1 | 25.7 | 0.00 | 0.00 | 0.00 | 100 | 960.3 |
| 20260903132546 | 18 | 311 | 16.1 | 25.7 | 0.00 | 0.00 | 0.00 | 100 | 960.3 |
| 20260903132444 | 18 | 306 | 14.5 | 24.1 | 0.00 | 0.00 | 0.00 | 100 | 960.3 |
| 20260903132240 | 18 | 309 | 12.9 | 22.5 | 0.00 | 0.00 | 0.00 | 100 | 960.4 |
| 20260903132037 | 18 | 305 | 14.5 | 25.7 | 0.00 | 0.00 | 0.00 | 100 | 960.2 |
| 20260903131834 | 18 | 301 | 16.1 | 25.7 | 0.00 | 0.00 | 0.00 | 100 | 960.4 |
| 20260903131631 | 18 | 299 | 16.1 | 25.7 | 0.00 | 0.00 | 0.00 | 100 | 960.4 |
| 20260903131428 | 18 | 300 | 17.7 | 32.2 | 0.00 | 0.00 | 0.00 | 100 | 960.4 |
| 20260903131327 | 18 | 300 | 16.1 | 32.2 | 0.00 | 0.00 | 0.00 | 100 | 960.4 |
| 20260903131225 | 18 | 302 | 16.1 | 32.2 | 0.00 | 0.00 | 0.00 | 100 | 960.3 |
| 20260903131022 | 18 | 302 | 12.9 | 19.3 | 0.00 | 0.00 | 0.00 | 100 | 960.3 |
| 20260903130819 | 18 | 303 | 12.9 | 20.9 | 0.00 | 0.00 | 0.00 | 100 | 960.3 |
| 20260903130718 | 18 | 302 | 14.5 | 25.7 | 0.00 | 0.00 | 0.00 | 100 | 960.3 |
| 20260903130616 | 18 | 302 | 16.1 | 25.7 | 0.00 | 0.00 | 0.00 | 100 | 960.2 |
| 20260903130403 | 18 | 310 | 14.5 | 25.7 | 0.00 | 0.00 | 0.00 | 100 | 960.2 |
| 20260903130200 | 19 | 308 | 16.1 | 27.4 | 0.00 | 0.00 | 0.00 | 100 | 960.2 |
| 20260903130100 | 19 | 304 | 17.7 | 29.0 | 0.00 | 0.00 | 0.00 | 100 | 960.3 |
| 20260903125957 | 19 | 301 | 19.3 | 29.0 | 0.00 | 0.00 | 0.00 | 100 | 960.2 |
| 20260903125754 | 19 | 298 | 16.1 | 29.0 | 0.00 | 0.00 | 0.00 | 100 | 960.2 |
| 20260903125551 | 19 | 294 | 12.9 | 24.1 | 0.00 | 0.00 | 0.00 | 100 | 960.3 |
| 20260903125451 | 20 | 289 | 12.9 | 24.1 | 0.00 | 0.00 | 0.00 | 100 | 960.3 |
| 20260903125348 | 20 | 286 | 14.5 | 24.1 | 0.00 | 0.00 | 0.00 | 100 | 960.4 |
| 20260903125145 | 20 | 289 | 14.5 | 24.1 | 0.00 | 0.00 | 0.00 | 100 | 960.4 |
| 20260903124942 | 20 | 291 | 16.1 | 24.1 | 0.00 | 0.00 | 0.00 | 100 | 960.3 |
| 20260903124841 | 20 | 294 | 16.1 | 24.1 | 0.00 | 0.00 | 0.00 | 100 | 960.3 |
| 20260903124739 | 20 | 291 | 16.1 | 24.1 | 0.00 | 0.00 | 0.00 | 100 | 960.3 |
| 20260903124535 | 20 | 296 | 17.7 | 25.7 | 0.00 | 0.00 | 0.00 | 100 | 960.2 |
| 20260903124332 | 20 | 294 | 19.3 | 25.7 | 0.00 | 0.00 | 0.00 | 100 | 960.4 |
| 20260903124232 | 20 | 295 | 20.9 | 27.4 | 0.00 | 0.00 | 0.00 | 100 | 960.3 |
| 20260903124129 | 20 | 293 | 22.5 | 27.4 | 0.00 | 0.00 | 0.00 | 100 | 960.3 |
| 20260903123926 | 20 | 289 | 19.3 | 27.4 | 0.00 | 0.00 | 0.00 | 100 | 960.3 |
| 20260903123723 | 20 | 288 | 16.1 | 29.0 | 0.00 | 0.00 | 0.00 | 100 | 960.3 |
| 20260903123623 | 20 | 294 | 16.1 | 29.0 | 0.00 | 0.00 | 0.00 | 100 | 960.2 |
| 20260903123520 | 20 | 296 | 16.1 | 29.0 | 0.00 | 0.00 | 0.00 | 100 | 960.1 |
| 20260903123317 | 20 | 292 | 9.7 | 25.7 | 0.00 | 0.00 | 0.00 | 100 | 960.2 |
| 20260903123115 | 21 | 249 | 4.8 | 14.5 | 0.00 | 0.00 | 0.00 | 100 | 960.3 |
| 20260903123014 | 21 | 252 | 4.8 | 22.5 | 0.00 | 0.00 | 0.00 | 100 | 960.2 |
| 20260903122912 | 21 | 262 | 6.4 | 22.5 | 0.00 | 0.00 | 0.00 | 100 | 960.3 |
| 20260903122709 | 21 | 274 | 8.0 | 22.5 | 0.00 | 0.00 | 0.00 | 100 | 960.3 |
| 20260903122505 | 21 | 261 | 6.4 | 19.3 | 0.00 | 0.00 | 0.00 | 100 | 960.4 |
| 20260903122406 | 21 | 249 | 4.8 | 19.3 | 0.00 | 0.00 | 0.00 | 100 | 960.1 |
| 20260903122305 | 21 | 251 | 4.8 | 14.5 | 0.00 | 0.00 | 0.00 | 100 | 960.2 |
| 20260903122059 | 21 | 250 | 4.8 | 14.5 | 0.00 | 0.00 | 0.00 | 100 | 960.4 |
| 20260903121856 | 21 | 279 | 6.4 | 14.5 | 0.00 | 0.00 | 0.00 | 100 | 960.2 |
| 20260903121755 | 21 | 282 | 6.4 | 16.1 | 0.00 | 0.00 | 0.00 | 100 | 960.4 |
| 20260903121653 | 21 | 289 | 6.4 | 16.1 | 0.00 | 0.00 | 0.00 | 100 | 960.4 |
| 20260903121450 | 21 | 266 | 6.4 | 19.3 | 0.00 | 0.00 | 0.00 | 100 | 960.3 |
| 20260903121247 | 21 | 253 | 11.3 | 25.7 | 0.00 | 0.00 | 0.00 | 100 | 960.4 |
| 20260903121146 | 21 | 249 | 9.7 | 25.7 | 0.00 | 0.00 | 0.00 | 100 | 960.3 |
| 20260903121044 | 21 | 250 | 9.7 | 25.7 | 0.00 | 0.00 | 0.00 | 100 | 960.2 |
| 20260903120841 | 21 | 244 | 4.8 | 19.3 | 0.00 | 0.00 | 0.00 | 100 | 960.2 |
| 20260903120638 | 22 | 0 | 3.2 | 19.3 | 0.00 | 0.00 | 0.00 | 100 | 960.2 |
| 20260903120537 | 22 | 0 | 1.6 | 8.0 | 0.00 | 0.00 | 0.00 | 100 | 960.3 |
| 20260903120435 | 22 | 0 | 1.6 | 8.0 | 0.00 | 0.00 | 0.00 | 100 | 960.4 |
| 20260903120232 | 21 | 0 | 1.6 | 8.0 | 0.00 | 0.00 | 0.00 | 100 | 960.3 |
| 20260903120028 | 21 | 182 | 1.6 | 12.9 | 0.00 | 0.00 | 0.00 | 100 | 960.2 |
| 20260903115825 | 21 | 183 | 3.2 | 12.9 | 0.00 | 0.00 | 0.00 | 100 | 960.2 |
| 20260903115622 | 21 | 236 | 3.2 | 9.7 | 0.00 | 0.00 | 0.00 | 100 | 960.3 |
| 20260903115419 | 21 | 303 | 6.4 | 12.9 | 0.00 | 0.00 | 0.00 | 100 | 960.3 |
| 20260903115319 | 20 | 324 | 6.4 | 12.9 | 0.00 | 0.00 | 0.00 | 100 | 960.2 |
| 20260903115216 | 20 | 338 | 8.0 | 12.9 | 0.00 | 0.00 | 0.00 | 100 | 960.4 |
| 20260903115013 | 20 | 288 | 6.4 | 12.9 | 0.00 | 0.00 | 0.00 | 100 | 960.3 |
| 20260903114810 | 21 | 254 | 6.4 | 17.7 | 0.00 | 0.00 | 0.00 | 100 | 960.4 |
| 20260903114709 | 21 | 248 | 4.8 | 17.7 | 0.00 | 0.00 | 0.00 | 100 | 960.4 |
| 20260903114607 | 21 | 230 | 4.8 | 17.7 | 0.00 | 0.00 | 0.00 | 100 | 960.4 |
| 20260903114404 | 21 | 151 | 3.2 | 12.9 | 0.00 | 0.00 | 0.00 | 100 | 960.4 |
| 20260903114200 | 21 | 343 | 3.2 | 9.7 | 0.00 | 0.00 | 0.00 | 100 | 960.4 |
| 20260903114100 | 20 | 328 | 3.2 | 9.7 | 0.00 | 0.00 | 0.00 | 100 | 960.5 |
| 20260903113957 | 20 | 309 | 3.2 | 9.7 | 0.00 | 0.00 | 0.00 | 100 | 960.5 |
| 20260903113754 | 21 | 258 | 3.2 | 8.0 | 0.00 | 0.00 | 0.00 | 100 | 960.6 |
| 20260903113551 | 20 | 256 | 3.2 | 9.7 | 0.00 | 0.00 | 0.00 | 100 | 960.7 |
| 20260903113451 | 20 | 262 | 4.8 | 12.9 | 0.00 | 0.00 | 0.00 | 100 | 960.7 |
| 20260903113348 | 20 | 270 | 6.4 | 14.5 | 0.00 | 0.00 | 0.00 | 100 | 960.7 |
| 20260903113145 | 20 | 276 | 8.0 | 14.5 | 0.00 | 0.00 | 0.00 | 100 | 960.6 |
| 20260903112941 | 19 | 276 | 11.3 | 22.5 | 0.00 | 0.00 | 0.00 | 100 | 960.6 |
| 20260903112841 | 19 | 289 | 12.9 | 22.5 | 0.00 | 0.00 | 0.00 | 100 | 960.7 |
| 20260903112738 | 19 | 292 | 14.5 | 22.5 | 0.00 | 0.00 | 0.00 | 100 | 960.6 |
| 20260903112536 | 19 | 304 | 11.3 | 17.7 | 0.00 | 0.00 | 0.00 | 100 | 960.5 |
| 20260903112332 | 19 | 296 | 9.7 | 14.5 | 0.00 | 0.00 | 0.00 | 100 | 960.6 |
| 20260903112231 | 19 | 299 | 11.3 | 16.1 | 0.00 | 0.00 | 0.00 | 100 | 960.6 |
| 20260903112129 | 19 | 300 | 11.3 | 16.1 | 0.00 | 0.00 | 0.00 | 100 | 960.5 |
| 20260903111926 | 19 | 299 | 11.3 | 17.7 | 0.00 | 0.00 | 0.00 | 100 | 960.5 |
| 20260903111723 | 19 | 301 | 12.9 | 17.7 | 0.00 | 0.00 | 0.00 | 100 | 960.5 |
| 20260903111623 | 19 | 310 | 12.9 | 19.3 | 0.00 | 0.00 | 0.00 | 100 | 960.5 |
| 20260903111520 | 19 | 315 | 14.5 | 20.9 | 0.00 | 0.00 | 0.00 | 100 | 960.5 |
| 20260903111317 | 19 | 325 | 12.9 | 20.9 | 0.00 | 0.00 | 0.00 | 100 | 960.5 |
| 20260903111114 | 19 | 331 | 12.9 | 20.9 | 0.00 | 0.00 | 0.00 | 100 | 960.5 |
| 20260903111013 | 19 | 330 | 12.9 | 20.9 | 0.00 | 0.00 | 0.00 | 100 | 960.4 |
| 20260903110911 | 19 | 326 | 12.9 | 20.9 | 0.00 | 0.00 | 0.00 | 100 | 960.4 |
| 20260903110708 | 20 | 319 | 12.9 | 20.9 | 0.00 | 0.00 | 0.00 | 100 | 960.5 |
| 20260903110505 | 20 | 306 | 11.3 | 19.3 | 0.00 | 0.00 | 0.00 | 100 | 960.5 |
| 20260903110404 | 20 | 300 | 11.3 | 19.3 | 0.00 | 0.00 | 0.00 | 100 | 960.6 |
| 20260903110302 | 20 | 293 | 11.3 | 16.1 | 0.00 | 0.00 | 0.00 | 100 | 960.6 |
| 20260903110058 | 20 | 298 | 11.3 | 17.7 | 0.00 | 0.00 | 0.00 | 100 | 960.6 |
| 20260903105855 | 19 | 303 | 12.9 | 19.3 | 0.00 | 0.00 | 0.00 | 100 | 960.5 |
| 20260903105652 | 20 | 309 | 12.9 | 19.3 | 0.00 | 0.00 | 0.00 | 100 | 960.6 |
| 20260903105449 | 20 | 303 | 12.9 | 19.3 | 0.00 | 0.00 | 0.00 | 100 | 960.5 |
| 20260903105246 | 20 | 311 | 8.0 | 12.9 | 0.00 | 0.00 | 0.00 | 100 | 960.5 |
| 20260903105145 | 20 | 318 | 8.0 | 12.9 | 0.00 | 0.00 | 0.00 | 100 | 960.5 |
| 20260903105042 | 20 | 323 | 6.4 | 12.9 | 0.00 | 0.00 | 0.00 | 100 | 960.6 |
| 20260903104839 | 20 | 314 | 6.4 | 12.9 | 0.00 | 0.00 | 0.00 | 100 | 960.7 |
| 20260903104636 | 20 | 295 | 6.4 | 12.9 | 0.00 | 0.00 | 0.00 | 100 | 960.6 |
| 20260903104433 | 20 | 242 | 3.2 | 9.7 | 0.00 | 0.00 | 0.00 | 100 | 960.7 |
| 20260903104230 | 20 | 284 | 4.8 | 11.3 | 0.00 | 0.00 | 0.00 | 100 | 960.7 |
| 20260903104027 | 20 | 289 | 9.7 | 14.5 | 0.00 | 0.00 | 0.00 | 100 | 960.6 |
| 20260903103926 | 20 | 294 | 9.7 | 14.5 | 0.00 | 0.00 | 0.00 | 100 | 960.7 |
| 20260903103824 | 20 | 298 | 11.3 | 16.1 | 0.00 | 0.00 | 0.00 | 100 | 960.7 |
| 20260903103621 | 20 | 308 | 11.3 | 19.3 | 0.00 | 0.00 | 0.00 | 100 | 960.6 |
| 20260903103417 | 20 | 299 | 8.0 | 19.3 | 0.00 | 0.00 | 0.00 | 100 | 960.7 |
| 20260903103316 | 20 | 299 | 8.0 | 14.5 | 0.00 | 0.00 | 0.00 | 100 | 960.7 |
| 20260903103214 | 20 | 293 | 8.0 | 14.5 | 0.00 | 0.00 | 0.00 | 100 | 960.6 |
| 20260903103011 | 20 | 306 | 8.0 | 14.5 | 0.00 | 0.00 | 0.00 | 100 | 960.5 |
| 20260903102807 | 20 | 327 | 8.0 | 12.9 | 0.00 | 0.00 | 0.00 | 100 | 960.7 |
| 20260903102707 | 20 | 342 | 8.0 | 14.5 | 0.00 | 0.00 | 0.00 | 100 | 960.6 |
| 20260903102551 | 20 | 357 | 8.0 | 14.5 | 0.00 | 0.00 | 0.00 | 100 | 960.7 |
| 20260903102348 | 20 | 14 | 6.4 | 14.5 | 0.00 | 0.00 | 0.00 | 100 | 960.8 |
| 20260903102145 | 20 | 334 | 4.8 | 12.9 | 0.00 | 0.00 | 0.00 | 100 | 960.7 |
| 20260903102044 | 20 | 306 | 4.8 | 8.0 | 0.00 | 0.00 | 0.00 | 100 | 960.8 |
| 20260903101942 | 20 | 295 | 4.8 | 8.0 | 0.00 | 0.00 | 0.00 | 100 | 960.8 |
| 20260903101740 | 20 | 264 | 3.2 | 8.0 | 0.00 | 0.00 | 0.00 | 100 | 960.9 |
| 20260903101537 | 21 | 253 | 3.2 | 8.0 | 0.00 | 0.00 | 0.00 | 100 | 961.0 |
| 20260903101436 | 21 | 0 | 1.6 | 8.0 | 0.00 | 0.00 | 0.00 | 100 | 961.0 |
| 20260903101334 | 20 | 0 | 3.2 | 8.0 | 0.00 | 0.00 | 0.00 | 100 | 961.1 |
| 20260903101131 | 19 | 6 | 4.8 | 11.3 | 0.00 | 0.00 | 0.00 | 100 | 961.1 |
| 20260903100927 | 19 | 7 | 6.4 | 11.3 | 0.00 | 0.00 | 0.00 | 100 | 961.0 |
| 20260903100827 | 19 | 11 | 4.8 | 11.3 | 0.00 | 0.00 | 0.00 | 100 | 961.1 |
| 20260903100724 | 19 | 11 | 4.8 | 8.0 | 0.00 | 0.00 | 0.00 | 100 | 961.1 |
| 20260903100521 | 19 | 18 | 6.4 | 12.9 | 0.00 | 0.00 | 0.00 | 100 | 961.1 |
| 20260903100318 | 19 | 34 | 6.4 | 12.9 | 0.00 | 0.00 | 0.00 | 100 | 961.0 |
| 20260903100218 | 19 | 42 | 6.4 | 12.9 | 0.00 | 0.00 | 0.00 | 100 | 961.0 |
| 20260903100116 | 19 | 40 | 8.0 | 12.9 | 0.00 | 0.00 | 0.00 | 100 | 961.0 |
| 20260903095913 | 20 | 47 | 6.4 | 12.9 | 0.00 | 0.00 | 0.00 | 100 | 961.2 |
| 20260903095710 | 19 | 57 | 3.2 | 12.9 | 0.00 | 0.00 | 0.00 | 100 | 961.2 |
| 20260903095609 | 19 | 44 | 3.2 | 9.7 | 0.00 | 0.00 | 0.00 | 100 | 961.3 |
| 20260903095507 | 19 | 36 | 3.2 | 9.7 | 0.00 | 0.00 | 0.00 | 100 | 961.3 |
| 20260903095306 | 19 | 37 | 4.8 | 9.7 | 0.00 | 0.00 | 0.00 | 100 | 961.3 |
| 20260903095101 | 18 | 51 | 4.8 | 8.0 | 0.00 | 0.00 | 0.00 | 100 | 961.2 |
| 20260903094857 | 19 | 49 | 3.2 | 8.0 | 0.00 | 0.00 | 0.00 | 100 | 961.2 |
| 20260903094654 | 19 | 54 | 3.2 | 9.7 | 0.00 | 0.00 | 0.00 | 100 | 961.3 |
| 20260903094451 | 19 | 51 | 3.2 | 11.3 | 0.00 | 0.00 | 0.00 | 100 | 961.3 |
| 20260903094350 | 19 | 28 | 4.8 | 11.3 | 0.00 | 0.00 | 0.00 | 100 | 961.3 |
| 20260903094248 | 19 | 10 | 4.8 | 11.3 | 0.00 | 0.00 | 0.00 | 100 | 961.3 |
| 20260903094045 | 19 | 359 | 8.0 | 11.3 | 0.00 | 0.00 | 0.00 | 100 | 961.2 |
| 20260903093842 | 19 | 356 | 6.4 | 11.3 | 0.00 | 0.00 | 0.00 | 100 | 961.3 |
| 20260903093741 | 19 | 347 | 4.8 | 11.3 | 0.00 | 0.00 | 0.00 | 100 | 961.4 |
| 20260903093639 | 19 | 341 | 3.2 | 6.4 | 0.00 | 0.00 | 0.00 | 100 | 961.5 |
| 20260903093435 | 19 | 45 | 3.2 | 6.4 | 0.00 | 0.00 | 0.00 | 100 | 961.5 |
| 20260903093232 | 19 | 98 | 3.2 | 4.8 | 0.00 | 0.00 | 0.00 | 100 | 961.5 |
| 20260903093131 | 19 | 86 | 3.2 | 4.8 | 0.00 | 0.00 | 0.00 | 100 | 961.5 |
| 20260903093029 | 19 | 63 | 3.2 | 4.8 | 0.00 | 0.00 | 0.00 | 100 | 961.4 |
| 20260903092826 | 19 | 21 | 3.2 | 8.0 | 0.00 | 0.00 | 0.00 | 100 | 961.4 |
| 20260903092623 | 19 | 26 | 4.8 | 9.7 | 0.00 | 0.00 | 0.00 | 100 | 961.5 |
| 20260903092421 | 20 | 30 | 3.2 | 9.7 | 0.00 | 0.00 | 0.00 | 100 | 961.5 |
| 20260903092218 | 20 | 45 | 1.6 | 3.2 | 0.00 | 0.00 | 0.00 | 100 | 961.4 |
| 20260903092014 | 18 | 14 | 3.2 | 4.8 | 0.00 | 0.00 | 0.00 | 100 | 961.6 |
| 20260903091914 | 18 | 7 | 3.2 | 4.8 | 0.00 | 0.00 | 0.00 | 100 | 961.6 |
| 20260903091811 | 18 | 357 | 3.2 | 4.8 | 0.00 | 0.00 | 0.00 | 100 | 961.5 |
| 20260903091609 | 18 | 356 | 3.2 | 6.4 | 0.00 | 0.00 | 0.00 | 100 | 961.6 |
| 20260903091406 | 18 | 0 | 3.2 | 6.4 | 0.00 | 0.00 | 0.00 | 100 | 961.6 |
| 20260903091304 | 18 | 12 | 3.2 | 6.4 | 0.00 | 0.00 | 0.00 | 100 | 961.6 |
| 20260903091202 | 18 | 9 | 3.2 | 4.8 | 0.00 | 0.00 | 0.00 | 100 | 961.5 |
| 20260903091000 | 18 | 15 | 3.2 | 6.4 | 0.00 | 0.00 | 0.00 | 100 | 961.6 |
| 20260903090757 | 17 | 6 | 4.8 | 6.4 | 0.00 | 0.00 | 0.00 | 100 | 961.6 |
| 20260903090657 | 17 | 3 | 4.8 | 9.7 | 0.00 | 0.00 | 0.00 | 100 | 961.6 |
| 20260903090554 | 17 | 0 | 6.4 | 9.7 | 0.00 | 0.00 | 0.00 | 100 | 961.6 |
| 20260903090351 | 18 | 358 | 8.0 | 11.3 | 0.00 | 0.00 | 0.00 | 100 | 961.6 |
| 20260903090148 | 18 | 357 | 9.7 | 11.3 | 0.00 | 0.00 | 0.00 | 100 | 961.6 |
| 20260903090047 | 18 | 357 | 9.7 | 11.3 | 0.00 | 0.00 | 0.00 | 100 | 961.5 |
| 20260903085945 | 18 | 356 | 8.0 | 11.3 | 0.00 | 0.00 | 0.00 | 100 | 961.6 |
| 20260903085741 | 18 | 350 | 6.4 | 9.7 | 0.00 | 0.00 | 0.00 | 100 | 961.5 |
| 20260903085538 | 18 | 15 | 6.4 | 11.3 | 0.00 | 0.00 | 0.00 | 100 | 961.6 |
| 20260903085438 | 18 | 18 | 6.4 | 11.3 | 0.00 | 0.00 | 0.00 | 100 | 961.6 |
| 20260903085335 | 18 | 19 | 6.4 | 11.3 | 0.00 | 0.00 | 0.00 | 100 | 961.5 |
| 20260903085132 | 18 | 359 | 4.8 | 11.3 | 0.00 | 0.00 | 0.00 | 100 | 961.5 |
| 20260903084929 | 18 | 33 | 3.2 | 9.7 | 0.00 | 0.00 | 0.00 | 100 | 961.5 |
| 20260903084829 | 18 | 57 | 3.2 | 9.7 | 0.00 | 0.00 | 0.00 | 100 | 961.5 |
| 20260903084726 | 18 | 64 | 4.8 | 8.0 | 0.00 | 0.00 | 0.00 | 100 | 961.7 |
| 20260903084523 | 18 | 42 | 4.8 | 9.7 | 0.00 | 0.00 | 0.00 | 100 | 961.6 |
| 20260903084319 | 18 | 17 | 3.2 | 9.7 | 0.00 | 0.00 | 0.00 | 100 | 961.6 |
| 20260903084219 | 18 | 1 | 3.2 | 9.7 | 0.00 | 0.00 | 0.00 | 100 | 961.6 |
| 20260903084116 | 18 | 340 | 3.2 | 8.0 | 0.00 | 0.00 | 0.00 | 100 | 961.6 |
| 20260903083913 | 18 | 318 | 3.2 | 8.0 | 0.00 | 0.00 | 0.00 | 100 | 961.7 |
| 20260903083709 | 18 | 281 | 3.2 | 6.4 | 0.00 | 0.00 | 0.00 | 100 | 961.6 |
| 20260903083609 | 18 | 0 | 1.6 | 6.4 | 0.00 | 0.00 | 0.00 | 100 | 961.5 |
| 20260903083507 | 17 | 344 | 3.2 | 6.4 | 0.00 | 0.00 | 0.00 | 100 | 961.6 |
| 20260903083304 | 17 | 8 | 4.8 | 8.0 | 0.00 | 0.00 | 0.00 | 100 | 961.6 |
| 20260903083100 | 17 | 10 | 6.4 | 9.7 | 0.00 | 0.00 | 0.00 | 100 | 961.6 |
| 20260903082959 | 17 | 10 | 6.4 | 9.7 | 0.00 | 0.00 | 0.00 | 100 | 961.6 |
| 20260903082857 | 17 | 10 | 4.8 | 9.7 | 0.00 | 0.00 | 0.00 | 100 | 961.6 |
| 20260903082654 | 17 | 27 | 4.8 | 6.4 | 0.00 | 0.00 | 0.00 | 100 | 961.5 |
| 20260903082451 | 17 | 21 | 3.2 | 6.4 | 0.00 | 0.00 | 0.00 | 100 | 961.6 |
| 20260903082351 | 17 | 17 | 4.8 | 6.4 | 0.00 | 0.00 | 0.00 | 100 | 961.6 |
| 20260903082248 | 17 | 5 | 4.8 | 6.4 | 0.00 | 0.00 | 0.00 | 100 | 961.5 |
| 20260903082045 | 17 | 333 | 3.2 | 6.4 | 0.00 | 0.00 | 0.00 | 100 | 961.5 |
| 20260903081842 | 17 | 332 | 3.2 | 6.4 | 0.00 | 0.00 | 0.00 | 100 | 961.6 |
| 20260903081741 | 17 | 357 | 3.2 | 6.4 | 0.00 | 0.00 | 0.00 | 100 | 961.6 |
| 20260903081638 | 17 | 7 | 4.8 | 8.0 | 0.00 | 0.00 | 0.00 | 100 | 961.6 |
| 20260903081435 | 17 | 37 | 4.8 | 9.7 | 0.00 | 0.00 | 0.00 | 100 | 961.5 |
| 20260903081232 | 17 | 38 | 3.2 | 9.7 | 0.00 | 0.00 | 0.00 | 100 | 961.5 |
| 20260903081131 | 17 | 40 | 3.2 | 9.7 | 0.00 | 0.00 | 0.00 | 100 | 961.5 |
| 20260903081029 | 17 | 20 | 3.2 | 8.0 | 0.00 | 0.00 | 0.00 | 100 | 961.6 |
| 20260903080826 | 17 | 15 | 3.2 | 8.0 | 0.00 | 0.00 | 0.00 | 100 | 961.5 |
| 20260903080622 | 17 | 3 | 3.2 | 6.4 | 0.00 | 0.00 | 0.00 | 100 | 961.6 |
| 20260903080522 | 17 | 350 | 3.2 | 6.4 | 0.00 | 0.00 | 0.00 | 100 | 961.5 |
| 20260903080420 | 16 | 357 | 4.8 | 6.4 | 0.00 | 0.00 | 0.00 | 100 | 961.5 |
| 20260903080217 | 16 | 13 | 3.2 | 6.4 | 0.00 | 0.00 | 0.00 | 100 | 961.5 |
| 20260903080013 | 16 | 46 | 3.2 | 6.4 | 0.00 | 0.00 | 0.00 | 100 | 961.6 |
| 20260903075912 | 16 | 48 | 3.2 | 6.4 | 0.00 | 0.00 | 0.00 | 100 | 961.6 |
| 20260903075810 | 16 | 48 | 3.2 | 6.4 | 0.00 | 0.00 | 0.00 | 100 | 961.5 |
| 20260903075606 | 16 | 33 | 3.2 | 6.4 | 0.00 | 0.00 | 0.00 | 100 | 961.5 |
| 20260903075403 | 16 | 5 | 3.2 | 6.4 | 0.00 | 0.00 | 0.00 | 100 | 961.6 |
| 20260903075306 | 16 | 0 | 3.2 | 6.4 | 0.00 | 0.00 | 0.00 | 100 | 961.6 |
| 20260903075200 | 16 | 5 | 3.2 | 6.4 | 0.00 | 0.00 | 0.00 | 100 | 961.6 |
| 20260903074957 | 16 | 13 | 3.2 | 6.4 | 0.00 | 0.00 | 0.00 | 100 | 961.5 |
| 20260903074754 | 16 | 351 | 3.2 | 8.0 | 0.00 | 0.00 | 0.00 | 100 | 961.6 |
| 20260903074640 | 16 | 344 | 4.8 | 8.0 | 0.00 | 0.00 | 0.00 | 100 | 961.5 |
| 20260903074537 | 16 | 340 | 3.2 | 8.0 | 0.00 | 0.00 | 0.00 | 100 | 961.5 |
| 20260903074334 | 16 | 340 | 3.2 | 6.4 | 0.00 | 0.00 | 0.00 | 100 | 961.5 |
| 20260903074132 | 16 | 355 | 4.8 | 6.4 | 0.00 | 0.00 | 0.00 | 100 | 961.5 |
| 20260903074031 | 16 | 1 | 4.8 | 8.0 | 0.00 | 0.00 | 0.00 | 100 | 961.5 |
| 20260903073927 | 15 | 2 | 4.8 | 8.0 | 0.00 | 0.00 | 0.00 | 100 | 961.5 |
| 20260903073725 | 15 | 2 | 3.2 | 6.4 | 0.00 | 0.00 | 0.00 | 100 | 961.4 |
| 20260903073521 | 15 | 359 | 3.2 | 6.4 | 0.00 | 0.00 | 0.00 | 100 | 961.5 |
| 20260903073420 | 15 | 347 | 3.2 | 6.4 | 0.00 | 0.00 | 0.00 | 100 | 961.4 |
| 20260903073318 | 15 | 340 | 3.2 | 6.4 | 0.00 | 0.00 | 0.00 | 100 | 961.4 |
| 20260903073114 | 15 | 343 | 4.8 | 6.4 | 0.00 | 0.00 | 0.00 | 100 | 961.4 |
| 20260903072911 | 15 | 348 | 4.8 | 6.4 | 0.00 | 0.00 | 0.00 | 100 | 961.3 |
| 20260903072810 | 15 | 349 | 4.8 | 6.4 | 0.00 | 0.00 | 0.00 | 100 | 961.4 |
| 20260903072708 | 15 | 347 | 4.8 | 6.4 | 0.00 | 0.00 | 0.00 | 100 | 961.4 |
| 20260903072504 | 15 | 346 | 4.8 | 8.0 | 0.00 | 0.00 | 0.00 | 100 | 961.4 |
| 20260903072301 | 15 | 342 | 4.8 | 8.0 | 0.00 | 0.00 | 0.00 | 100 | 961.3 |
| 20260903072201 | 15 | 347 | 4.8 | 8.0 | 0.00 | 0.00 | 0.00 | 100 | 961.4 |
| 20260903072058 | 15 | 356 | 4.8 | 8.0 | 0.00 | 0.00 | 0.00 | 100 | 961.4 |
| 20260903071854 | 15 | 4 | 3.2 | 6.4 | 0.00 | 0.00 | 0.00 | 100 | 961.5 |
| 20260903071651 | 15 | 3 | 3.2 | 6.4 | 0.00 | 0.00 | 0.00 | 100 | 961.4 |
| 20260903071550 | 15 | 3 | 3.2 | 6.4 | 0.00 | 0.00 | 0.00 | 100 | 961.4 |
| 20260903071448 | 14 | 2 | 4.8 | 6.4 | 0.00 | 0.00 | 0.00 | 100 | 961.4 |
| 20260903071244 | 14 | 356 | 4.8 | 6.4 | 0.00 | 0.00 | 0.00 | 100 | 961.4 |
| 20260903071041 | 14 | 13 | 4.8 | 6.4 | 0.00 | 0.00 | 0.00 | 100 | 961.3 |
| 20260903070940 | 15 | 20 | 4.8 | 6.4 | 0.00 | 0.00 | 0.00 | 100 | 961.5 |
| 20260903070838 | 15 | 26 | 3.2 | 6.4 | 0.00 | 0.00 | 0.00 | 100 | 961.4 |
| 20260903070636 | 14 | 10 | 4.8 | 6.4 | 0.00 | 0.00 | 0.00 | 100 | 961.4 |
| 20260903070433 | 14 | 354 | 4.8 | 6.4 | 0.00 | 0.00 | 0.00 | 100 | 961.4 |
| 20260903070332 | 14 | 4 | 4.8 | 6.4 | 0.00 | 0.00 | 0.00 | 100 | 961.4 |
| 20260903070229 | 14 | 9 | 3.2 | 6.4 | 0.00 | 0.00 | 0.00 | 100 | 961.5 |
| 20260903070026 | 14 | 8 | 3.2 | 6.4 | 0.00 | 0.00 | 0.00 | 100 | 961.4 |
| 20260903065823 | 14 | 351 | 3.2 | 4.8 | 0.00 | 0.00 | 0.00 | 100 | 961.4 |
| 20260903065722 | 14 | 349 | 3.2 | 4.8 | 0.00 | 0.00 | 0.00 | 100 | 961.4 |
| 20260903065620 | 14 | 350 | 3.2 | 6.4 | 0.00 | 0.00 | 0.00 | 100 | 961.4 |
| 20260903065416 | 14 | 351 | 3.2 | 4.8 | 0.00 | 0.00 | 0.00 | 100 | 961.4 |
| 20260903065214 | 14 | 353 | 1.6 | 4.8 | 0.00 | 0.00 | 0.00 | 100 | 961.4 |
| 20260903065113 | 14 | 1 | 1.6 | 4.8 | 0.00 | 0.00 | 0.00 | 100 | 961.4 |
| 20260903065011 | 14 | 0 | 1.6 | 3.2 | 0.00 | 0.00 | 0.00 | 100 | 961.4 |
| 20260903064808 | 14 | 7 | 1.6 | 3.2 | 0.00 | 0.00 | 0.00 | 100 | 961.3 |
| 20260903064605 | 13 | 8 | 1.6 | 4.8 | 0.00 | 0.00 | 0.00 | 100 | 961.4 |
| 20260903064402 | 13 | 349 | 3.2 | 4.8 | 0.00 | 0.00 | 0.00 | 100 | 961.4 |
| 20260903064159 | 13 | 341 | 3.2 | 4.8 | 0.00 | 0.00 | 0.00 | 100 | 961.5 |
| 20260903063956 | 13 | 342 | 3.2 | 4.8 | 0.00 | 0.00 | 0.00 | 100 | 961.4 |
| 20260903063855 | 13 | 341 | 3.2 | 4.8 | 0.00 | 0.00 | 0.00 | 100 | 961.5 |
| 20260903063753 | 13 | 342 | 3.2 | 6.4 | 0.00 | 0.00 | 0.00 | 100 | 961.5 |
| 20260903063550 | 13 | 341 | 3.2 | 6.4 | 0.00 | 0.00 | 0.00 | 100 | 961.6 |
| 20260903063346 | 13 | 343 | 3.2 | 6.4 | 0.00 | 0.00 | 0.00 | 100 | 961.5 |
| 20260903063245 | 13 | 344 | 3.2 | 6.4 | 0.00 | 0.00 | 0.00 | 100 | 961.6 |
| 20260903063143 | 13 | 351 | 3.2 | 4.8 | 0.00 | 0.00 | 0.00 | 100 | 961.6 |
| 20260903062940 | 13 | 357 | 3.2 | 6.4 | 0.00 | 0.00 | 0.00 | 100 | 961.7 |
| 20260903062736 | 13 | 357 | 3.2 | 6.4 | 0.00 | 0.00 | 0.00 | 100 | 961.6 |
| 20260903062636 | 13 | 357 | 4.8 | 6.4 | 0.00 | 0.00 | 0.00 | 100 | 961.6 |
| 20260903062534 | 13 | 355 | 4.8 | 6.4 | 0.00 | 0.00 | 0.00 | 100 | 961.6 |
| 20260903062330 | 13 | 355 | 4.8 | 6.4 | 0.00 | 0.00 | 0.00 | 100 | 961.6 |
| 20260903062127 | 13 | 2 | 3.2 | 6.4 | 0.00 | 0.00 | 0.00 | 100 | 961.6 |
| 20260903062026 | 13 | 0 | 3.2 | 6.4 | 0.00 | 0.00 | 0.00 | 100 | 961.7 |
| 20260903061924 | 13 | 359 | 1.6 | 4.8 | 0.00 | 0.00 | 0.00 | 100 | 961.7 |
| 20260903061721 | 13 | 359 | 3.2 | 4.8 | 0.00 | 0.00 | 0.00 | 100 | 961.8 |
| 20260903061518 | 13 | 4 | 3.2 | 4.8 | 0.00 | 0.00 | 0.00 | 100 | 961.6 |
| 20260903061314 | 13 | 1 | 1.6 | 3.2 | 0.00 | 0.00 | 0.00 | 100 | 961.6 |
| 20260903061111 | 13 | 0 | 1.6 | 3.2 | 0.00 | 0.00 | 0.00 | 100 | 961.6 |
| 20260903060907 | 13 | 350 | 1.6 | 3.2 | 0.00 | 0.00 | 0.00 | 100 | 961.6 |
| 20260903060807 | 13 | 0 | 0.0 | 3.2 | 0.00 | 0.00 | 0.00 | 100 | 961.7 |
| 20260903060704 | 13 | 0 | 0.0 | 1.6 | 0.00 | 0.00 | 0.00 | 100 | 961.7 |
| 20260903060501 | 13 | 0 | 0.0 | 3.2 | 0.00 | 0.00 | 0.00 | 100 | 961.7 |
| 20260903060258 | 12 | 345 | 1.6 | 3.2 | 0.00 | 0.00 | 0.00 | 100 | 961.7 |
| 20260903060157 | 12 | 348 | 1.6 | 3.2 | 0.00 | 0.00 | 0.00 | 100 | 961.7 |
| 20260903060055 | 12 | 353 | 1.6 | 3.2 | 0.00 | 0.00 | 0.00 | 100 | 961.6 |
| 20260903055851 | 12 | 349 | 1.6 | 4.8 | 0.00 | 0.00 | 0.00 | 100 | 961.7 |
| 20260903055647 | 12 | 1 | 3.2 | 4.8 | 0.00 | 0.00 | 0.00 | 100 | 961.7 |
| 20260903055547 | 12 | 3 | 3.2 | 4.8 | 0.00 | 0.00 | 0.00 | 100 | 961.7 |
| 20260903055445 | 12 | 355 | 3.2 | 4.8 | 0.00 | 0.00 | 0.00 | 100 | 961.7 |
| 20260903055241 | 12 | 338 | 3.2 | 4.8 | 0.00 | 0.00 | 0.00 | 100 | 961.7 |
| 20260903055037 | 12 | 338 | 3.2 | 4.8 | 0.00 | 0.00 | 0.00 | 100 | 961.7 |
| 20260903054937 | 12 | 340 | 3.2 | 4.8 | 0.00 | 0.00 | 0.00 | 100 | 961.7 |
| 20260903054835 | 12 | 334 | 3.2 | 3.2 | 0.00 | 0.00 | 0.00 | 100 | 961.8 |
| 20260903054631 | 12 | 325 | 1.6 | 4.8 | 0.00 | 0.00 | 0.00 | 100 | 961.7 |
| 20260903054428 | 13 | 0 | 1.6 | 4.8 | 0.00 | 0.00 | 0.00 | 100 | 961.7 |
| 20260903054327 | 13 | 113 | 1.6 | 1.6 | 0.00 | 0.00 | 0.00 | 100 | 961.7 |
| 20260903054225 | 13 | 113 | 1.6 | 3.2 | 0.00 | 0.00 | 0.00 | 100 | 961.7 |
| 20260903054022 | 12 | 105 | 1.6 | 3.2 | 0.00 | 0.00 | 0.00 | 100 | 961.6 |
| 20260903053819 | 13 | 115 | 1.6 | 3.2 | 0.00 | 0.00 | 0.00 | 100 | 961.6 |
| 20260903053718 | 12 | 0 | 1.6 | 3.2 | 0.00 | 0.00 | 0.00 | 100 | 961.6 |
| 20260903053615 | 12 | 0 | 0.0 | 3.2 | 0.00 | 0.00 | 0.00 | 100 | 961.6 |
| 20260903053411 | 12 | 0 | 0.0 | 3.2 | 0.00 | 0.00 | 0.00 | 100 | 961.6 |
| 20260903053208 | 12 | 0 | 0.0 | 3.2 | 0.00 | 0.00 | 0.00 | 100 | 961.7 |
| 20260903053108 | 12 | 0 | 0.0 | 3.2 | 0.00 | 0.00 | 0.00 | 100 | 961.7 |
| 20260903053006 | 12 | 0 | 0.0 | 3.2 | 0.00 | 0.00 | 0.00 | 100 | 961.5 |
| 20260903052803 | 12 | 172 | 1.6 | 6.4 | 0.00 | 0.00 | 0.00 | 100 | 961.6 |
| 20260903052600 | 13 | 170 | 1.6 | 6.4 | 0.00 | 0.00 | 0.00 | 100 | 961.6 |
| 20260903052459 | 13 | 172 | 1.6 | 6.4 | 0.00 | 0.00 | 0.00 | 100 | 961.6 |
| 20260903052356 | 13 | 181 | 1.6 | 4.8 | 0.00 | 0.00 | 0.00 | 100 | 961.6 |
| 20260903052153 | 13 | 0 | 0.0 | 3.2 | 0.00 | 0.00 | 0.00 | 100 | 961.6 |
| 20260903051950 | 13 | 175 | 1.6 | 4.8 | 0.00 | 0.00 | 0.00 | 100 | 961.6 |
| 20260903051849 | 13 | 170 | 1.6 | 4.8 | 0.00 | 0.00 | 0.00 | 100 | 961.6 |
| 20260903051654 | 13 | 154 | 1.6 | 3.2 | 0.00 | 0.00 | 0.00 | 100 | 961.5 |
| 20260903051451 | 13 | 130 | 1.6 | 3.2 | 0.00 | 0.00 | 0.00 | 100 | 961.6 |
| 20260903051350 | 13 | 128 | 1.6 | 1.6 | 0.00 | 0.00 | 0.00 | 100 | 961.6 |
| 20260903051248 | 13 | 130 | 0.0 | 1.6 | 0.00 | 0.00 | 0.00 | 100 | 961.5 |
| 20260903051045 | 13 | 0 | 0.0 | 1.6 | 0.00 | 0.00 | 0.00 | 100 | 961.7 |